Time,TemperatureF,DewpointF,PressureIn,WindDirection,WindDirectionDegrees,WindSpeedMPH,WindSpeedGustMPH,Humidity,HourlyPrecipIn,Conditions,Clouds,dailyrainin,SoftwareType,DateUTC
2013-04-22 00:01:00,48.3,16.7,30.50,East,90,6.9,10.4,28,0.00,CLR,,0.00,WeatherDisplay:10.37,2013-04-22 04:01:00,
2013-04-22 00:06:00,48.4,14.1,30.50,ESE,104,8.3,11.5,25,0.00,CLR,,0.00,WeatherDisplay:10.37,2013-04-22 04:06:00,
2013-04-22 00:07:00,48.4,15.0,30.50,ESE,113,5.7,10.4,26,0.00,CLR,,0.00,WeatherDisplay:10.37,2013-04-22 04:07:00,
2013-04-22 00:11:00,48.2,14.0,30.50,ENE,68,7.8,13.1,25,0.00,CLR,,0.00,WeatherDisplay:10.37,2013-04-22 04:11:00,
2013-04-22 00:12:00,48.1,13.9,30.50,East,93,6.9,12.7,25,0.00,CLR,,0.00,WeatherDisplay:10.37,2013-04-22 04:12:00,
2013-04-22 00:16:00,48.1,13.9,30.50,NE,49,7.5,9.2,25,0.00,CLR,,0.00,WeatherDisplay:10.37,2013-04-22 04:16:00,
2013-04-22 00:17:00,47.6,13.5,30.50,ENE,76,6.2,9.2,25,0.00,CLR,,0.00,WeatherDisplay:10.37,2013-04-22 04:17:00,
2013-04-22 00:21:00,47.8,13.6,30.50,East,93,3.7,17.3,25,0.00,CLR,,0.00,WeatherDisplay:10.37,2013-04-22 04:21:00,
2013-04-22 00:22:00,48.0,13.8,30.50,SE,133,3.2,6.9,25,0.00,CLR,,0.00,WeatherDisplay:10.37,2013-04-22 04:22:00,
2013-04-22 00:26:00,47.7,12.6,30.49,East,88,7.5,12.7,24,0.00,CLR,,0.00,WeatherDisplay:10.37,2013-04-22 04:26:00,
2013-04-22 00:27:00,47.7,12.6,30.50,ESE,116,10.2,12.7,24,0.00,CLR,,0.00,WeatherDisplay:10.37,2013-04-22 04:27:00,
2013-04-22 00:32:00,47.7,11.6,30.49,East,83,8.8,12.7,23,0.00,CLR,,0.00,WeatherDisplay:10.37,2013-04-22 04:32:00,
2013-04-22 00:33:00,47.9,13.7,30.49,East,92,6.2,10.4,25,0.00,CLR,,0.00,WeatherDisplay:10.37,2013-04-22 04:33:00,
2013-04-22 00:37:00,47.5,12.4,30.49,East,85,9.3,12.7,24,0.00,CLR,,0.00,WeatherDisplay:10.37,2013-04-22 04:37:00,
2013-04-22 00:38:00,47.5,12.4,30.49,ENE,78,7.4,12.7,24,0.00,CLR,,0.00,WeatherDisplay:10.37,2013-04-22 04:38:00,
2013-04-22 00:42:00,47.6,12.5,30.49,ESE,104,6.6,10.4,24,0.00,CLR,,0.00,WeatherDisplay:10.37,2013-04-22 04:42:00,
2013-04-22 00:43:00,47.5,11.5,30.50,East,99,8.6,13.8,23,0.00,CLR,,0.00,WeatherDisplay:10.37,2013-04-22 04:43:00,
2013-04-22 00:44:00,47.6,13.5,30.50,East,80,7.5,12.1,25,0.00,CLR,,0.00,WeatherDisplay:10.37,2013-04-22 04:44:00,
2013-04-22 00:47:00,47.6,11.6,30.49,East,99,8.5,13.8,23,0.00,CLR,,0.00,WeatherDisplay:10.37,2013-04-22 04:47:00,
2013-04-22 00:48:00,47.4,12.4,30.49,ESE,103,6.2,10.4,24,0.00,CLR,,0.00,WeatherDisplay:10.37,2013-04-22 04:48:00,
2013-04-22 00:49:00,47.6,11.6,30.49,SE,124,8.8,13.8,23,0.00,CLR,,0.00,WeatherDisplay:10.37,2013-04-22 04:49:00,
2013-04-22 00:52:00,47.3,11.3,30.49,ESE,102,8.4,18.4,23,0.00,CLR,,0.00,WeatherDisplay:10.37,2013-04-22 04:52:00,
2013-04-22 00:53:00,47.6,11.6,30.49,East,85,7.3,12.3,23,0.00,CLR,,0.00,WeatherDisplay:10.37,2013-04-22 04:53:00,
2013-04-22 00:54:00,47.5,11.5,30.50,SE,124,8.8,12.7,23,0.00,CLR,,0.00,WeatherDisplay:10.37,2013-04-22 04:54:00,
2013-04-22 00:57:00,47.5,12.4,30.50,ESE,110,6.3,12.7,24,0.00,CLR,,0.00,WeatherDisplay:10.37,2013-04-22 04:57:00,
2013-04-22 00:58:00,47.3,12.3,30.50,ESE,103,9.4,12.7,24,0.00,CLR,,0.00,WeatherDisplay:10.37,2013-04-22 04:58:00,
2013-04-22 00:59:00,47.6,12.5,30.50,ESE,103,8.4,13.2,24,0.00,CLR,,0.00,WeatherDisplay:10.37,2013-04-22 04:59:00,
2013-04-22 01:03:00,47.7,13.5,30.50,ESE,103,7.1,11.5,25,0.00,CLR,,0.00,WeatherDisplay:10.37,2013-04-22 05:03:00,
2013-04-22 01:04:00,47.8,10.7,30.49,ESE,113,10.8,20.7,22,0.00,CLR,,0.00,WeatherDisplay:10.37,2013-04-22 05:04:00,
2013-04-22 01:08:00,47.4,11.4,30.50,ENE,76,5.6,11.5,23,0.00,CLR,,0.00,WeatherDisplay:10.37,2013-04-22 05:08:00,
2013-04-22 01:09:00,47.6,13.5,30.50,ESE,123,7.5,12.7,25,0.00,CLR,,0.00,WeatherDisplay:10.37,2013-04-22 05:09:00,
2013-04-22 01:10:00,47.6,12.5,30.49,East,97,10.7,16.7,24,0.00,CLR,,0.00,WeatherDisplay:10.37,2013-04-22 05:10:00,
2013-04-22 01:13:00,47.3,11.3,30.50,SSE,155,11.3,16.1,23,0.00,CLR,,0.00,WeatherDisplay:10.37,2013-04-22 05:13:00,
2013-04-22 01:14:00,47.2,14.0,30.49,SSE,147,9.3,17.3,26,0.00,CLR,,0.00,WeatherDisplay:10.37,2013-04-22 05:14:00,
2013-04-22 01:15:00,46.9,11.0,30.50,East,99,7.8,17.3,23,0.00,CLR,,0.00,WeatherDisplay:10.37,2013-04-22 05:15:00,
2013-04-22 01:18:00,47.1,12.1,30.50,East,95,7.0,13.8,24,0.00,CLR,,0.00,WeatherDisplay:10.37,2013-04-22 05:18:00,
2013-04-22 01:19:00,47.0,12.0,30.50,ESE,107,8.5,13.8,24,0.00,CLR,,0.00,WeatherDisplay:10.37,2013-04-22 05:19:00,
2013-04-22 01:20:00,47.0,13.8,30.50,ENE,73,10.1,15.0,26,0.00,CLR,,0.00,WeatherDisplay:10.37,2013-04-22 05:20:00,
2013-04-22 01:23:00,47.0,13.8,30.50,East,80,9.3,13.8,26,0.00,CLR,,0.00,WeatherDisplay:10.37,2013-04-22 05:23:00,
2013-04-22 01:24:00,46.7,11.8,30.50,ESE,121,10.7,12.7,24,0.00,CLR,,0.00,WeatherDisplay:10.37,2013-04-22 05:24:00,
2013-04-22 01:25:00,46.6,11.7,30.50,East,96,12.2,19.6,24,0.00,CLR,,0.00,WeatherDisplay:10.37,2013-04-22 05:25:00,
2013-04-22 01:28:00,46.3,14.1,30.50,ENE,75,7.1,15.0,27,0.00,CLR,,0.00,WeatherDisplay:10.37,2013-04-22 05:28:00,
2013-04-22 01:30:00,46.6,14.4,30.50,East,97,9.9,15.0,27,0.00,CLR,,0.00,WeatherDisplay:10.37,2013-04-22 05:30:00,
2013-04-22 01:33:00,46.2,15.6,30.49,ESE,113,5.5,10.4,29,0.00,CLR,,0.00,WeatherDisplay:10.37,2013-04-22 05:33:00,
2013-04-22 01:35:00,46.3,14.9,30.49,East,89,11.1,18.4,28,0.00,CLR,,0.00,WeatherDisplay:10.37,2013-04-22 05:35:00,
2013-04-22 01:39:00,46.0,16.3,30.50,SSE,154,9.0,19.6,30,0.00,CLR,,0.00,WeatherDisplay:10.37,2013-04-22 05:39:00,
2013-04-22 01:40:00,46.0,16.3,30.50,ESE,109,10.0,19.6,30,0.00,CLR,,0.00,WeatherDisplay:10.37,2013-04-22 05:40:00,
2013-04-22 01:44:00,45.7,16.7,30.50,East,95,8.4,13.8,31,0.00,CLR,,0.00,WeatherDisplay:10.37,2013-04-22 05:44:00,
2013-04-22 01:45:00,45.7,16.0,30.50,East,86,5.9,10.4,30,0.00,CLR,,0.00,WeatherDisplay:10.37,2013-04-22 05:45:00,
2013-04-22 01:46:00,45.9,17.7,30.50,SSE,155,6.7,10.4,32,0.00,CLR,,0.00,WeatherDisplay:10.37,2013-04-22 05:46:00,
2013-04-22 01:49:00,45.5,17.3,30.50,SE,144,12.9,17.3,32,0.00,CLR,,0.00,WeatherDisplay:10.37,2013-04-22 05:49:00,
2013-04-22 01:50:00,45.7,17.5,30.50,East,99,4.5,12.7,32,0.00,CLR,,0.00,WeatherDisplay:10.37,2013-04-22 05:50:00,
2013-04-22 01:51:00,45.8,17.6,30.50,East,92,4.4,5.8,32,0.00,CLR,,0.00,WeatherDisplay:10.37,2013-04-22 05:51:00,
2013-04-22 01:54:00,45.8,18.3,30.50,SE,130,5.8,10.4,33,0.00,CLR,,0.00,WeatherDisplay:10.37,2013-04-22 05:54:00,
2013-04-22 01:55:00,45.7,18.2,30.50,East,99,8.1,11.7,33,0.00,CLR,,0.00,WeatherDisplay:10.37,2013-04-22 05:55:00,
2013-04-22 01:56:00,45.7,16.7,30.50,East,82,8.8,10.0,31,0.00,CLR,,0.00,WeatherDisplay:10.37,2013-04-22 05:56:00,
2013-04-22 01:57:00,45.3,17.1,30.50,East,92,7.1,10.4,32,0.00,CLR,,0.00,WeatherDisplay:10.37,2013-04-22 05:57:00,
2013-04-22 01:59:00,45.3,18.5,30.50,SE,131,4.5,10.4,34,0.00,CLR,,0.00,WeatherDisplay:10.37,2013-04-22 05:59:00,
2013-04-22 02:01:00,45.2,17.8,30.50,ESE,109,4.6,9.2,33,0.00,CLR,,0.00,WeatherDisplay:10.37,2013-04-22 06:01:00,
2013-04-22 02:02:00,45.4,17.9,30.50,SE,126,0.6,7.8,33,0.00,CLR,,0.00,WeatherDisplay:10.37,2013-04-22 06:02:00,
2013-04-22 02:04:00,45.3,19.2,30.50,ENE,73,7.9,16.1,35,0.00,CLR,,0.00,WeatherDisplay:10.37,2013-04-22 06:04:00,
2013-04-22 02:06:00,45.2,17.8,30.50,East,100,8.3,12.7,33,0.00,CLR,,0.00,WeatherDisplay:10.37,2013-04-22 06:06:00,
2013-04-22 02:07:00,45.0,18.3,30.50,ESE,113,4.7,11.5,34,0.00,CLR,,0.00,WeatherDisplay:10.37,2013-04-22 06:07:00,
2013-04-22 02:09:00,45.2,21.7,30.50,ESE,109,7.8,12.0,39,0.00,CLR,,0.00,WeatherDisplay:10.37,2013-04-22 06:09:00,
2013-04-22 02:11:00,45.0,17.6,30.50,ESE,110,5.3,13.8,33,0.00,CLR,,0.00,WeatherDisplay:10.37,2013-04-22 06:11:00,
2013-04-22 02:12:00,45.2,17.8,30.50,SE,141,5.2,9.2,33,0.00,CLR,,0.00,WeatherDisplay:10.37,2013-04-22 06:12:00,
2013-04-22 02:14:00,45.7,20.9,30.50,East,90,4.4,9.2,37,0.00,CLR,,0.00,WeatherDisplay:10.37,2013-04-22 06:14:00,
2013-04-22 02:17:00,45.5,20.7,30.50,ESE,112,2.7,8.1,37,0.00,CLR,,0.00,WeatherDisplay:10.37,2013-04-22 06:17:00,
2013-04-22 02:20:00,45.1,19.0,30.50,SE,140,4.9,8.1,35,0.00,CLR,,0.00,WeatherDisplay:10.37,2013-04-22 06:20:00,
2013-04-22 02:22:00,44.8,18.8,30.50,ENE,73,4.2,9.2,35,0.00,CLR,,0.00,WeatherDisplay:10.37,2013-04-22 06:22:00,
2013-04-22 02:25:00,44.6,19.3,30.50,East,89,6.1,11.5,36,0.00,CLR,,0.00,WeatherDisplay:10.37,2013-04-22 06:25:00,
2013-04-22 02:27:00,44.8,18.8,30.50,NE,40,0.0,0.0,35,0.00,CLR,,0.00,WeatherDisplay:10.37,2013-04-22 06:27:00,
2013-04-22 02:30:00,44.4,18.4,30.50,East,92,3.9,5.8,35,0.00,CLR,,0.00,WeatherDisplay:10.37,2013-04-22 06:30:00,
2013-04-22 02:32:00,44.3,19.0,30.50,East,92,0.0,0.0,36,0.00,CLR,,0.00,WeatherDisplay:10.37,2013-04-22 06:32:00,
2013-04-22 02:35:00,44.4,22.7,30.50,SSE,152,5.7,8.1,42,0.00,CLR,,0.00,WeatherDisplay:10.37,2013-04-22 06:35:00,
2013-04-22 02:37:00,44.4,19.1,30.50,East,86,0.0,5.8,36,0.00,CLR,,0.00,WeatherDisplay:10.37,2013-04-22 06:37:00,
2013-04-22 02:38:00,44.3,19.0,30.50,East,86,0.0,5.8,36,0.00,CLR,,0.00,WeatherDisplay:10.37,2013-04-22 06:38:00,
2013-04-22 02:40:00,43.8,19.2,30.50,East,86,0.0,0.0,37,0.00,CLR,,0.00,WeatherDisplay:10.37,2013-04-22 06:40:00,
2013-04-22 02:42:00,44.2,22.0,30.50,East,86,0.0,0.0,41,0.00,CLR,,0.00,WeatherDisplay:10.37,2013-04-22 06:42:00,
2013-04-22 02:43:00,44.1,21.9,30.50,East,86,0.0,0.0,41,0.00,CLR,,0.00,WeatherDisplay:10.37,2013-04-22 06:43:00,
2013-04-22 02:46:00,44.3,20.9,30.50,ENE,69,0.0,0.0,39,0.00,CLR,,0.00,WeatherDisplay:10.37,2013-04-22 06:46:00,
2013-04-22 02:48:00,44.1,20.7,30.50,NE,55,3.1,5.8,39,0.00,CLR,,0.00,WeatherDisplay:10.37,2013-04-22 06:48:00,
2013-04-22 02:49:00,44.2,19.5,30.50,NE,55,0.3,4.6,37,0.00,CLR,,0.00,WeatherDisplay:10.37,2013-04-22 06:49:00,
2013-04-22 02:51:00,44.3,21.5,30.50,NE,55,0.0,0.0,40,0.00,CLR,,0.00,WeatherDisplay:10.37,2013-04-22 06:51:00,
2013-04-22 02:53:00,44.2,20.8,30.50,NE,55,0.0,0.0,39,0.00,CLR,,0.00,WeatherDisplay:10.37,2013-04-22 06:53:00,
2013-04-22 02:54:00,44.3,20.9,30.50,NE,55,0.0,0.0,39,0.00,CLR,,0.00,WeatherDisplay:10.37,2013-04-22 06:54:00,
2013-04-22 02:56:00,44.2,22.0,30.50,NE,55,0.0,0.0,41,0.00,CLR,,0.00,WeatherDisplay:10.37,2013-04-22 06:56:00,
2013-04-22 02:58:00,44.0,19.4,30.50,NNE,31,1.6,6.9,37,0.00,CLR,,0.00,WeatherDisplay:10.37,2013-04-22 06:58:00,
2013-04-22 02:59:00,44.0,20.0,30.50,NNE,31,0.0,5.8,38,0.00,CLR,,0.00,WeatherDisplay:10.37,2013-04-22 06:59:00,
2013-04-22 03:01:00,44.3,22.1,30.50,NNE,31,0.0,0.0,41,0.00,CLR,,0.00,WeatherDisplay:10.37,2013-04-22 07:01:00,
2013-04-22 03:03:00,44.2,21.4,30.50,NNE,31,0.0,0.0,40,0.00,CLR,,0.00,WeatherDisplay:10.37,2013-04-22 07:03:00,
2013-04-22 03:04:00,44.2,21.4,30.50,NNE,31,0.0,0.0,40,0.00,CLR,,0.00,WeatherDisplay:10.37,2013-04-22 07:04:00,
2013-04-22 03:07:00,44.1,22.4,30.50,NNE,31,0.0,0.0,42,0.00,CLR,,0.00,WeatherDisplay:10.37,2013-04-22 07:07:00,
2013-04-22 03:08:00,44.3,22.1,30.50,NNE,31,0.0,0.0,41,0.00,CLR,,0.00,WeatherDisplay:10.37,2013-04-22 07:08:00,
2013-04-22 03:09:00,44.1,21.9,30.50,NNE,31,0.0,0.0,41,0.00,CLR,,0.00,WeatherDisplay:10.37,2013-04-22 07:09:00,
2013-04-22 03:12:00,44.4,23.3,30.50,NNE,31,0.0,0.0,43,0.00,CLR,,0.00,WeatherDisplay:10.37,2013-04-22 07:12:00,
2013-04-22 03:13:00,44.3,23.7,30.50,NNE,31,0.0,0.0,44,0.00,CLR,,0.00,WeatherDisplay:10.37,2013-04-22 07:13:00,
2013-04-22 03:14:00,43.9,19.9,30.50,NNE,31,0.0,0.0,38,0.00,CLR,,0.00,WeatherDisplay:10.37,2013-04-22 07:14:00,
2013-04-22 03:17:00,43.9,22.3,30.50,NNE,31,0.0,0.0,42,0.00,CLR,,0.00,WeatherDisplay:10.37,2013-04-22 07:17:00,
2013-04-22 03:18:00,44.0,21.2,30.50,NNE,31,0.0,0.0,40,0.00,CLR,,0.00,WeatherDisplay:10.37,2013-04-22 07:18:00,
2013-04-22 03:19:00,43.6,21.4,30.50,NNE,31,0.0,0.0,41,0.00,CLR,,0.00,WeatherDisplay:10.37,2013-04-22 07:19:00,
2013-04-22 03:22:00,43.7,21.5,30.50,NNE,31,0.0,0.0,41,0.00,CLR,,0.00,WeatherDisplay:10.37,2013-04-22 07:22:00,
2013-04-22 03:23:00,43.3,20.6,30.50,NNE,31,0.0,0.0,40,0.00,CLR,,0.00,WeatherDisplay:10.37,2013-04-22 07:23:00,
2013-04-22 03:24:00,43.3,20.6,30.50,NNE,31,0.0,0.0,40,0.00,CLR,,0.00,WeatherDisplay:10.37,2013-04-22 07:24:00,
2013-04-22 03:28:00,43.9,24.4,30.49,NNE,31,0.0,0.0,46,0.00,CLR,,0.00,WeatherDisplay:10.37,2013-04-22 07:28:00,
2013-04-22 03:29:00,43.6,24.2,30.50,NNE,31,0.0,0.0,46,0.00,CLR,,0.00,WeatherDisplay:10.37,2013-04-22 07:29:00,
2013-04-22 03:30:00,43.5,23.5,30.50,NNE,31,0.0,0.0,45,0.00,CLR,,0.00,WeatherDisplay:10.37,2013-04-22 07:30:00,
2013-04-22 03:33:00,43.5,21.9,30.50,NNE,31,0.0,0.0,42,0.00,CLR,,0.00,WeatherDisplay:10.37,2013-04-22 07:33:00,
2013-04-22 03:34:00,43.2,21.1,30.50,NNE,31,0.0,0.0,41,0.00,CLR,,0.00,WeatherDisplay:10.37,2013-04-22 07:34:00,
2013-04-22 03:35:00,43.0,20.9,30.50,NNE,31,0.0,0.0,41,0.00,CLR,,0.00,WeatherDisplay:10.37,2013-04-22 07:35:00,
2013-04-22 03:38:00,42.5,21.0,30.50,NNE,31,0.0,0.0,42,0.00,CLR,,0.00,WeatherDisplay:10.37,2013-04-22 07:38:00,
2013-04-22 03:39:00,42.2,21.3,30.50,NNE,31,0.0,0.0,43,0.00,CLR,,0.00,WeatherDisplay:10.37,2013-04-22 07:39:00,
2013-04-22 03:40:00,42.3,21.9,30.50,NNE,31,0.0,0.0,44,0.00,CLR,,0.00,WeatherDisplay:10.37,2013-04-22 07:40:00,
2013-04-22 03:43:00,42.3,22.4,30.50,NNE,31,0.0,0.0,45,0.00,CLR,,0.00,WeatherDisplay:10.37,2013-04-22 07:43:00,
2013-04-22 03:44:00,42.0,22.2,30.50,NNE,31,0.0,0.0,45,0.00,CLR,,0.00,WeatherDisplay:10.37,2013-04-22 07:44:00,
2013-04-22 03:45:00,42.2,22.9,30.50,NNE,31,0.0,0.0,46,0.00,CLR,,0.00,WeatherDisplay:10.37,2013-04-22 07:45:00,
2013-04-22 03:48:00,42.1,23.8,30.50,NNE,31,0.0,0.0,48,0.00,CLR,,0.00,WeatherDisplay:10.37,2013-04-22 07:48:00,
2013-04-22 03:49:00,42.4,24.6,30.50,NNE,31,0.0,0.0,49,0.00,CLR,,0.00,WeatherDisplay:10.37,2013-04-22 07:49:00,
2013-04-22 03:50:00,42.7,24.8,30.50,NNE,31,0.0,0.0,49,0.00,CLR,,0.00,WeatherDisplay:10.37,2013-04-22 07:50:00,
2013-04-22 03:54:00,42.5,25.6,30.50,NNE,31,0.0,0.0,51,0.00,CLR,,0.00,WeatherDisplay:10.37,2013-04-22 07:54:00,
2013-04-22 03:55:00,42.6,24.3,30.49,NNE,31,0.0,0.0,48,0.00,CLR,,0.00,WeatherDisplay:10.37,2013-04-22 07:55:00,
2013-04-22 03:59:00,42.6,23.8,30.49,NNE,31,0.0,0.0,47,0.00,CLR,,0.00,WeatherDisplay:10.37,2013-04-22 07:59:00,
2013-04-22 04:00:00,42.7,24.4,30.49,NNE,31,0.0,0.0,48,0.00,CLR,,0.00,WeatherDisplay:10.37,2013-04-22 08:00:00,
2013-04-22 04:04:00,43.1,27.1,30.50,NNE,31,0.0,0.0,53,0.00,CLR,,0.00,WeatherDisplay:10.37,2013-04-22 08:04:00,
2013-04-22 04:05:00,43.3,27.3,30.50,NNE,31,0.0,0.0,53,0.00,CLR,,0.00,WeatherDisplay:10.37,2013-04-22 08:05:00,
2013-04-22 04:09:00,43.9,27.9,30.49,NNE,31,0.0,0.0,53,0.00,CLR,,0.00,WeatherDisplay:10.37,2013-04-22 08:09:00,
2013-04-22 04:10:00,43.8,28.2,30.49,NNE,31,0.0,0.0,54,0.00,CLR,,0.00,WeatherDisplay:10.37,2013-04-22 08:10:00,
2013-04-22 04:11:00,43.8,29.1,30.49,NNE,31,0.0,0.0,56,0.00,CLR,,0.00,WeatherDisplay:10.37,2013-04-22 08:11:00,
2013-04-22 04:14:00,44.0,29.7,30.49,NNE,31,0.0,0.0,57,0.00,CLR,,0.00,WeatherDisplay:10.37,2013-04-22 08:14:00,
2013-04-22 04:15:00,44.3,30.4,30.49,NNE,31,0.0,0.0,58,0.00,CLR,,0.00,WeatherDisplay:10.37,2013-04-22 08:15:00,
2013-04-22 04:16:00,44.3,30.4,30.49,NNE,31,0.0,0.0,58,0.00,CLR,,0.00,WeatherDisplay:10.37,2013-04-22 08:16:00,
2013-04-22 04:19:00,44.2,29.5,30.49,NNE,31,0.0,0.0,56,0.00,CLR,,0.00,WeatherDisplay:10.37,2013-04-22 08:19:00,
2013-04-22 04:20:00,44.2,29.9,30.49,NNE,31,0.0,0.0,57,0.00,CLR,,0.00,WeatherDisplay:10.37,2013-04-22 08:20:00,
2013-04-22 04:21:00,44.1,29.8,30.49,NNE,31,0.0,0.0,57,0.00,CLR,,0.00,WeatherDisplay:10.37,2013-04-22 08:21:00,
2013-04-22 04:24:00,43.8,27.8,30.49,NNE,31,0.0,0.0,53,0.00,CLR,,0.00,WeatherDisplay:10.37,2013-04-22 08:24:00,
2013-04-22 04:26:00,43.6,27.6,30.49,NNE,31,0.0,0.0,53,0.00,CLR,,0.00,WeatherDisplay:10.37,2013-04-22 08:26:00,
2013-04-22 04:30:00,43.6,28.9,30.49,NNE,31,0.0,0.0,56,0.00,CLR,,0.00,WeatherDisplay:10.37,2013-04-22 08:30:00,
2013-04-22 04:31:00,43.8,29.1,30.49,NNE,31,0.0,0.0,56,0.00,CLR,,0.00,WeatherDisplay:10.37,2013-04-22 08:31:00,
2013-04-22 04:35:00,43.6,25.7,30.50,NNE,31,0.0,0.0,49,0.00,CLR,,0.00,WeatherDisplay:10.37,2013-04-22 08:35:00,
2013-04-22 04:36:00,43.6,25.7,30.50,NNE,31,0.0,0.0,49,0.00,CLR,,0.00,WeatherDisplay:10.37,2013-04-22 08:36:00,
2013-04-22 04:40:00,41.9,25.5,30.49,NNE,31,0.0,0.0,52,0.00,CLR,,0.00,WeatherDisplay:10.37,2013-04-22 08:40:00,
2013-04-22 04:41:00,41.3,25.4,30.49,NNE,31,0.0,0.0,53,0.00,CLR,,0.00,WeatherDisplay:10.37,2013-04-22 08:41:00,
2013-04-22 04:42:00,42.2,26.7,30.49,NNE,31,0.0,0.0,54,0.00,CLR,,0.00,WeatherDisplay:10.37,2013-04-22 08:42:00,
2013-04-22 04:45:00,42.1,26.6,30.49,NNE,31,0.0,0.0,54,0.00,CLR,,0.00,WeatherDisplay:10.37,2013-04-22 08:45:00,
2013-04-22 04:46:00,42.0,25.6,30.49,NNE,31,0.0,0.0,52,0.00,CLR,,0.00,WeatherDisplay:10.37,2013-04-22 08:46:00,
2013-04-22 04:47:00,41.9,25.5,30.49,NNE,31,0.0,0.0,52,0.00,CLR,,0.00,WeatherDisplay:10.37,2013-04-22 08:47:00,
2013-04-22 04:51:00,41.4,26.9,30.49,NNE,31,0.0,0.0,56,0.00,CLR,,0.00,WeatherDisplay:10.37,2013-04-22 08:51:00,
2013-04-22 04:52:00,41.5,26.5,30.49,NNE,31,0.0,0.0,55,0.00,CLR,,0.00,WeatherDisplay:10.37,2013-04-22 08:52:00,
2013-04-22 04:56:00,41.4,27.3,30.49,NNE,31,0.0,0.0,57,0.00,CLR,,0.00,WeatherDisplay:10.37,2013-04-22 08:56:00,
2013-04-22 04:57:00,41.3,28.0,30.49,NNE,31,0.0,0.0,59,0.00,CLR,,0.00,WeatherDisplay:10.37,2013-04-22 08:57:00,
2013-04-22 05:01:00,41.9,30.2,30.49,NNE,31,0.0,0.0,63,0.00,CLR,,0.00,WeatherDisplay:10.37,2013-04-22 09:01:00,
2013-04-22 05:02:00,41.8,29.7,30.49,NNE,31,0.0,0.0,62,0.00,CLR,,0.00,WeatherDisplay:10.37,2013-04-22 09:02:00,
2013-04-22 05:06:00,40.8,28.0,30.49,NNE,31,0.0,0.0,60,0.00,CLR,,0.00,WeatherDisplay:10.37,2013-04-22 09:06:00,
2013-04-22 05:07:00,40.8,28.0,30.49,NNE,31,0.0,0.0,60,0.00,CLR,,0.00,WeatherDisplay:10.37,2013-04-22 09:07:00,
2013-04-22 05:11:00,41.6,27.9,30.48,NNE,31,0.0,0.0,58,0.00,CLR,,0.00,WeatherDisplay:10.37,2013-04-22 09:11:00,
2013-04-22 05:12:00,40.2,27.4,30.48,NNE,31,0.0,0.0,60,0.00,CLR,,0.00,WeatherDisplay:10.37,2013-04-22 09:12:00,
2013-04-22 05:13:00,40.6,27.8,30.48,NNE,31,0.0,0.0,60,0.00,CLR,,0.00,WeatherDisplay:10.37,2013-04-22 09:13:00,
2013-04-22 05:16:00,40.1,25.6,30.48,NNE,31,0.0,0.0,56,0.00,CLR,,0.00,WeatherDisplay:10.37,2013-04-22 09:16:00,
2013-04-22 05:17:00,39.9,25.0,30.48,NNE,31,0.0,0.0,55,0.00,CLR,,0.00,WeatherDisplay:10.37,2013-04-22 09:17:00,
2013-04-22 05:18:00,39.5,24.7,30.48,NNE,31,0.0,0.0,55,0.00,CLR,,0.00,WeatherDisplay:10.37,2013-04-22 09:18:00,
2013-04-22 05:22:00,39.1,26.4,30.48,NNE,31,0.0,0.0,60,0.00,CLR,,0.00,WeatherDisplay:10.37,2013-04-22 09:22:00,
2013-04-22 05:23:00,38.8,26.5,30.48,NNE,31,0.0,0.0,61,0.00,CLR,,0.00,WeatherDisplay:10.37,2013-04-22 09:23:00,
2013-04-22 05:27:00,39.2,28.4,30.48,NNE,31,0.0,0.0,65,0.00,CLR,,0.00,WeatherDisplay:10.37,2013-04-22 09:27:00,
2013-04-22 05:28:00,39.0,28.2,30.48,NNE,31,0.0,0.0,65,0.00,CLR,,0.00,WeatherDisplay:10.37,2013-04-22 09:28:00,
2013-04-22 05:29:00,39.1,28.3,30.48,NNE,31,0.0,0.0,65,0.00,CLR,,0.00,WeatherDisplay:10.37,2013-04-22 09:29:00,
2013-04-22 05:32:00,38.6,27.1,30.48,NNE,31,0.0,0.0,63,0.00,CLR,,0.00,WeatherDisplay:10.37,2013-04-22 09:32:00,
2013-04-22 05:33:00,38.5,27.4,30.48,NNE,31,0.0,0.0,64,0.00,CLR,,0.00,WeatherDisplay:10.37,2013-04-22 09:33:00,
2013-04-22 05:34:00,38.5,27.4,30.48,NNE,31,0.0,0.0,64,0.00,CLR,,0.00,WeatherDisplay:10.37,2013-04-22 09:34:00,
2013-04-22 05:37:00,37.4,27.4,30.48,NNE,31,0.0,0.0,67,0.00,CLR,,0.00,WeatherDisplay:10.37,2013-04-22 09:37:00,
2013-04-22 05:39:00,37.2,27.2,30.48,NNE,31,0.0,0.0,67,0.00,CLR,,0.00,WeatherDisplay:10.37,2013-04-22 09:39:00,
2013-04-22 05:42:00,38.4,27.3,30.48,NNE,31,0.0,0.0,64,0.00,CLR,,0.00,WeatherDisplay:10.37,2013-04-22 09:42:00,
2013-04-22 05:44:00,38.5,27.7,30.47,NNE,31,0.0,0.0,65,0.00,CLR,,0.00,WeatherDisplay:10.37,2013-04-22 09:44:00,
2013-04-22 05:47:00,37.8,27.1,30.48,NNE,31,0.0,0.0,65,0.00,CLR,,0.00,WeatherDisplay:10.37,2013-04-22 09:47:00,
2013-04-22 05:48:00,37.5,26.8,30.48,NNE,31,0.0,0.0,65,0.00,CLR,,0.00,WeatherDisplay:10.37,2013-04-22 09:48:00,
2013-04-22 05:49:00,37.2,27.2,30.48,NNE,31,0.0,0.0,67,0.00,CLR,,0.00,WeatherDisplay:10.37,2013-04-22 09:49:00,
2013-04-22 05:53:00,37.0,27.4,30.48,NNE,31,0.0,0.0,68,0.00,CLR,,0.00,WeatherDisplay:10.37,2013-04-22 09:53:00,
2013-04-22 05:54:00,36.9,28.0,30.48,NNE,31,0.0,0.0,70,0.00,CLR,,0.00,WeatherDisplay:10.37,2013-04-22 09:54:00,
2013-04-22 05:58:00,36.5,29.0,30.48,NNE,31,0.0,0.0,74,0.00,CLR,,0.00,WeatherDisplay:10.37,2013-04-22 09:58:00,
2013-04-22 05:59:00,36.6,29.7,30.47,NNE,31,0.0,0.0,76,0.00,CLR,,0.00,WeatherDisplay:10.37,2013-04-22 09:59:00,
2013-04-22 06:03:00,35.9,29.7,30.47,NNE,31,0.0,0.0,78,0.00,CLR,,0.00,WeatherDisplay:10.37,2013-04-22 10:03:00,
2013-04-22 06:04:00,36.4,29.2,30.47,NNE,31,0.0,0.0,75,0.00,CLR,,0.00,WeatherDisplay:10.37,2013-04-22 10:04:00,
2013-04-22 06:05:00,36.4,29.2,30.47,NNE,31,0.0,0.0,75,0.00,CLR,,0.00,WeatherDisplay:10.37,2013-04-22 10:05:00,
2013-04-22 06:08:00,34.6,27.5,30.46,NNE,31,0.0,0.0,75,0.00,CLR,,0.00,WeatherDisplay:10.37,2013-04-22 10:08:00,
2013-04-22 06:09:00,35.3,28.2,30.46,NNE,31,0.0,0.0,75,0.00,CLR,,0.00,WeatherDisplay:10.37,2013-04-22 10:09:00,
2013-04-22 06:10:00,35.3,28.2,30.46,NNE,31,0.0,0.0,75,0.00,CLR,,0.00,WeatherDisplay:10.37,2013-04-22 10:10:00,
2013-04-22 06:13:00,36.2,29.0,30.47,NNE,31,0.0,0.0,75,0.00,CLR,,0.00,WeatherDisplay:10.37,2013-04-22 10:13:00,
2013-04-22 06:14:00,36.0,28.8,30.47,NNE,31,0.0,0.0,75,0.00,CLR,,0.00,WeatherDisplay:10.37,2013-04-22 10:14:00,
2013-04-22 06:15:00,35.8,29.3,30.47,NNE,31,0.0,0.0,77,0.00,CLR,,0.00,WeatherDisplay:10.37,2013-04-22 10:15:00,
2013-04-22 06:18:00,36.0,31.0,30.48,NNE,31,0.0,0.0,82,0.00,CLR,,0.00,WeatherDisplay:10.37,2013-04-22 10:18:00,
2013-04-22 06:19:00,36.3,31.6,30.48,NNE,31,0.0,0.0,83,0.00,CLR,,0.00,WeatherDisplay:10.37,2013-04-22 10:19:00,
2013-04-22 06:20:00,36.3,31.6,30.48,NNE,31,0.0,0.0,83,0.00,CLR,,0.00,WeatherDisplay:10.37,2013-04-22 10:20:00,
2013-04-22 06:24:00,37.1,33.3,30.48,NNE,31,0.0,0.0,86,0.00,CLR,,0.00,WeatherDisplay:10.37,2013-04-22 10:24:00,
2013-04-22 06:25:00,37.3,33.2,30.48,NNE,31,0.0,0.0,85,0.00,CLR,,0.00,WeatherDisplay:10.37,2013-04-22 10:25:00,
2013-04-22 06:29:00,36.6,30.7,30.48,NNE,31,0.0,0.0,79,0.00,CLR,,0.00,WeatherDisplay:10.37,2013-04-22 10:29:00,
2013-04-22 06:30:00,36.1,30.2,30.48,NNE,31,0.0,0.0,79,0.00,CLR,,0.00,WeatherDisplay:10.37,2013-04-22 10:30:00,
2013-04-22 06:34:00,34.9,30.0,30.48,NNE,31,0.0,0.0,82,0.00,CLR,,0.00,WeatherDisplay:10.37,2013-04-22 10:34:00,
2013-04-22 06:35:00,37.1,31.8,30.48,NNE,31,0.0,0.0,81,0.00,CLR,,0.00,WeatherDisplay:10.37,2013-04-22 10:35:00,
2013-04-22 06:39:00,36.9,31.0,30.48,NNE,31,0.0,0.0,79,0.00,CLR,,0.00,WeatherDisplay:10.37,2013-04-22 10:39:00,
2013-04-22 06:40:00,36.7,30.8,30.48,NNE,31,0.0,0.0,79,0.00,CLR,,0.00,WeatherDisplay:10.37,2013-04-22 10:40:00,
2013-04-22 06:41:00,36.7,30.5,30.48,NNE,31,0.0,0.0,78,0.00,CLR,,0.00,WeatherDisplay:10.37,2013-04-22 10:41:00,
2013-04-22 06:44:00,36.6,30.1,30.48,NNE,31,0.0,0.0,77,0.00,CLR,,0.00,WeatherDisplay:10.37,2013-04-22 10:44:00,
2013-04-22 06:45:00,36.6,30.1,30.49,NNE,31,0.0,0.0,77,0.00,CLR,,0.00,WeatherDisplay:10.37,2013-04-22 10:45:00,
2013-04-22 06:46:00,35.8,29.6,30.49,NNE,31,0.0,0.0,78,0.00,CLR,,0.00,WeatherDisplay:10.37,2013-04-22 10:46:00,
2013-04-22 06:49:00,35.9,30.3,30.49,NNE,31,0.0,0.0,80,0.00,CLR,,0.00,WeatherDisplay:10.37,2013-04-22 10:49:00,
2013-04-22 06:50:00,36.0,30.1,30.49,NNE,31,0.0,0.0,79,0.00,CLR,,0.00,WeatherDisplay:10.37,2013-04-22 10:50:00,
2013-04-22 06:51:00,35.4,29.5,30.49,NNE,31,0.0,0.0,79,0.00,CLR,,0.00,WeatherDisplay:10.37,2013-04-22 10:51:00,
2013-04-22 06:54:00,33.8,28.6,30.49,NNE,31,0.0,0.0,81,0.00,CLR,,0.00,WeatherDisplay:10.37,2013-04-22 10:54:00,
2013-04-22 06:55:00,33.8,28.9,30.49,NNE,31,0.0,0.0,82,0.00,CLR,,0.00,WeatherDisplay:10.37,2013-04-22 10:55:00,
2013-04-22 06:56:00,33.8,28.9,30.49,NNE,31,0.0,0.0,82,0.00,CLR,,0.00,WeatherDisplay:10.37,2013-04-22 10:56:00,
2013-04-22 06:59:00,34.0,29.7,30.49,NNE,31,0.0,0.0,84,0.00,CLR,,0.00,WeatherDisplay:10.37,2013-04-22 10:59:00,
2013-04-22 07:00:00,34.0,30.0,30.48,NNE,31,0.0,0.0,85,0.00,CLR,,0.00,WeatherDisplay:10.37,2013-04-22 11:00:00,
2013-04-22 07:01:00,32.6,28.6,30.48,NNE,31,0.0,0.0,85,0.00,CLR,,0.00,WeatherDisplay:10.37,2013-04-22 11:01:00,
2013-04-22 07:04:00,33.3,30.1,30.49,NNE,31,0.0,0.0,88,0.00,CLR,,0.00,WeatherDisplay:10.37,2013-04-22 11:04:00,
2013-04-22 07:05:00,34.1,31.2,30.49,NNE,31,0.0,0.0,89,0.00,CLR,,0.00,WeatherDisplay:10.37,2013-04-22 11:05:00,
2013-04-22 07:06:00,33.9,31.0,30.49,NNE,31,0.0,0.0,89,0.00,CLR,,0.00,WeatherDisplay:10.37,2013-04-22 11:06:00,
2013-04-22 07:07:00,33.5,30.6,30.49,NNE,31,0.0,0.0,89,0.00,CLR,,0.00,WeatherDisplay:10.37,2013-04-22 11:07:00,
2013-04-22 07:09:00,33.4,30.2,30.49,NNE,31,0.0,0.0,88,0.00,CLR,,0.00,WeatherDisplay:10.37,2013-04-22 11:09:00,
2013-04-22 07:10:00,34.4,31.5,30.49,NNE,31,0.0,0.0,89,0.00,CLR,,0.00,WeatherDisplay:10.37,2013-04-22 11:10:00,
2013-04-22 07:12:00,35.5,32.9,30.49,NNE,31,0.0,0.0,90,0.00,CLR,,0.00,WeatherDisplay:10.37,2013-04-22 11:12:00,
2013-04-22 07:14:00,36.6,34.2,30.50,NNE,31,0.0,0.0,91,0.00,CLR,,0.00,WeatherDisplay:10.37,2013-04-22 11:14:00,
2013-04-22 07:15:00,36.4,34.0,30.50,NNE,31,0.0,0.0,91,0.00,CLR,,0.00,WeatherDisplay:10.37,2013-04-22 11:15:00,
2013-04-22 07:17:00,36.7,34.3,30.50,NNE,31,0.0,0.0,91,0.00,CLR,,0.00,WeatherDisplay:10.37,2013-04-22 11:17:00,
2013-04-22 07:20:00,37.7,35.3,30.50,NNE,31,0.0,0.0,91,0.00,CLR,,0.00,WeatherDisplay:10.37,2013-04-22 11:20:00,
2013-04-22 07:21:00,37.7,35.3,30.50,NNE,31,0.0,0.0,91,0.00,CLR,,0.00,WeatherDisplay:10.37,2013-04-22 11:21:00,
2013-04-22 07:22:00,36.7,34.0,30.50,NNE,31,0.0,0.0,90,0.00,CLR,,0.00,WeatherDisplay:10.37,2013-04-22 11:22:00,
2013-04-22 07:25:00,37.3,33.5,30.50,NNE,31,0.0,0.0,86,0.00,CLR,,0.00,WeatherDisplay:10.37,2013-04-22 11:25:00,
2013-04-22 07:26:00,37.5,33.4,30.50,NNE,31,0.0,0.0,85,0.00,CLR,,0.00,WeatherDisplay:10.37,2013-04-22 11:26:00,
2013-04-22 07:28:00,37.5,33.1,30.50,NNE,31,0.0,0.0,84,0.00,CLR,,0.00,WeatherDisplay:10.37,2013-04-22 11:28:00,
2013-04-22 07:30:00,38.5,33.8,30.50,NNE,31,0.0,0.0,83,0.00,CLR,,0.00,WeatherDisplay:10.37,2013-04-22 11:30:00,
2013-04-22 07:31:00,38.6,33.9,30.50,NNE,31,0.0,0.0,83,0.00,CLR,,0.00,WeatherDisplay:10.37,2013-04-22 11:31:00,
2013-04-22 07:32:00,39.0,34.3,30.50,NNE,31,0.0,0.0,83,0.00,CLR,,0.00,WeatherDisplay:10.37,2013-04-22 11:32:00,
2013-04-22 07:33:00,39.0,34.3,30.50,NNE,31,0.0,0.0,83,0.00,CLR,,0.00,WeatherDisplay:10.37,2013-04-22 11:33:00,
2013-04-22 07:35:00,39.2,34.2,30.50,NNE,31,0.0,0.0,82,0.00,CLR,,0.00,WeatherDisplay:10.37,2013-04-22 11:35:00,
2013-04-22 07:36:00,39.5,34.8,30.50,NNE,31,0.0,0.0,83,0.00,CLR,,0.00,WeatherDisplay:10.37,2013-04-22 11:36:00,
2013-04-22 07:38:00,39.9,35.2,30.50,NNE,31,0.0,0.0,83,0.00,CLR,,0.00,WeatherDisplay:10.37,2013-04-22 11:38:00,
2013-04-22 07:40:00,40.1,35.7,30.50,NNE,31,0.0,0.0,84,0.00,CLR,,0.00,WeatherDisplay:10.37,2013-04-22 11:40:00,
2013-04-22 07:41:00,40.3,35.8,30.50,NNE,31,0.0,0.0,84,0.00,CLR,,0.00,WeatherDisplay:10.37,2013-04-22 11:41:00,
2013-04-22 07:43:00,41.1,36.6,30.51,NNE,31,0.0,0.0,84,0.00,CLR,,0.00,WeatherDisplay:10.37,2013-04-22 11:43:00,
2013-04-22 07:45:00,40.8,35.1,30.51,NNE,31,0.0,0.0,80,0.00,CLR,,0.00,WeatherDisplay:10.37,2013-04-22 11:45:00,
2013-04-22 07:46:00,41.2,35.5,30.51,NNE,31,0.0,0.0,80,0.00,CLR,,0.00,WeatherDisplay:10.37,2013-04-22 11:46:00,
2013-04-22 07:49:00,41.6,35.6,30.51,NNE,31,0.0,0.0,79,0.00,CLR,,0.00,WeatherDisplay:10.37,2013-04-22 11:49:00,
2013-04-22 07:50:00,41.7,35.3,30.51,NNE,31,0.0,0.0,78,0.00,CLR,,0.00,WeatherDisplay:10.37,2013-04-22 11:50:00,
2013-04-22 07:51:00,42.1,35.7,30.51,NNE,31,0.0,0.0,78,0.00,CLR,,0.00,WeatherDisplay:10.37,2013-04-22 11:51:00,
2013-04-22 07:54:00,42.5,35.5,30.51,NNE,31,0.0,0.0,76,0.00,CLR,,0.00,WeatherDisplay:10.37,2013-04-22 11:54:00,
2013-04-22 07:56:00,43.0,36.3,30.51,NNE,31,0.0,0.0,77,0.00,CLR,,0.00,WeatherDisplay:10.37,2013-04-22 11:56:00,
2013-04-22 07:57:00,43.4,35.7,30.51,NNE,31,0.0,0.0,74,0.00,CLR,,0.00,WeatherDisplay:10.37,2013-04-22 11:57:00,
2013-04-22 07:59:00,44.4,35.9,30.51,NNE,31,0.0,0.0,72,0.00,CLR,,0.00,WeatherDisplay:10.37,2013-04-22 11:59:00,
2013-04-22 08:01:00,44.7,34.4,30.51,NNE,31,0.0,0.0,67,0.00,CLR,,0.00,WeatherDisplay:10.37,2013-04-22 12:01:00,
2013-04-22 08:02:00,45.0,34.3,30.51,NNE,31,0.0,0.0,66,0.00,CLR,,0.00,WeatherDisplay:10.37,2013-04-22 12:02:00,
2013-04-22 08:04:00,45.9,32.4,30.51,NNE,31,0.0,0.0,59,0.00,CLR,,0.00,WeatherDisplay:10.37,2013-04-22 12:04:00,
2013-04-22 08:06:00,46.0,20.5,30.51,NNE,31,0.0,0.0,36,0.00,CLR,,0.00,WeatherDisplay:10.37,2013-04-22 12:06:00,
2013-04-22 08:07:00,45.9,21.7,30.51,NNE,31,0.0,0.0,38,0.00,CLR,,0.00,WeatherDisplay:10.37,2013-04-22 12:07:00,
2013-04-22 08:10:00,46.2,26.5,30.51,NNE,31,0.0,0.0,46,0.00,CLR,,0.00,WeatherDisplay:10.37,2013-04-22 12:10:00,
2013-04-22 08:11:00,46.3,26.6,30.51,NNE,31,0.0,0.0,46,0.00,CLR,,0.00,WeatherDisplay:10.37,2013-04-22 12:11:00,
2013-04-22 08:12:00,46.4,19.5,30.51,NNE,31,0.0,0.0,34,0.00,CLR,,0.00,WeatherDisplay:10.37,2013-04-22 12:12:00,
2013-04-22 08:15:00,46.7,21.1,30.51,NNE,31,0.0,0.0,36,0.00,CLR,,0.00,WeatherDisplay:10.37,2013-04-22 12:15:00,
2013-04-22 08:16:00,46.6,22.3,30.51,NNE,31,0.0,0.0,38,0.00,CLR,,0.00,WeatherDisplay:10.37,2013-04-22 12:16:00,
2013-04-22 08:17:00,46.6,21.7,30.51,NNE,31,0.0,0.0,37,0.00,CLR,,0.00,WeatherDisplay:10.37,2013-04-22 12:17:00,
2013-04-22 08:18:00,46.8,21.9,30.51,NNE,31,0.0,0.0,37,0.00,CLR,,0.00,WeatherDisplay:10.37,2013-04-22 12:18:00,
2013-04-22 08:20:00,47.1,20.8,30.51,NNE,31,0.0,0.0,35,0.00,CLR,,0.00,WeatherDisplay:10.37,2013-04-22 12:20:00,
2013-04-22 08:21:00,47.5,18.3,30.51,NNE,31,0.0,0.0,31,0.00,CLR,,0.00,WeatherDisplay:10.37,2013-04-22 12:21:00,
2013-04-22 08:22:00,47.4,18.2,30.51,NNE,31,0.0,0.0,31,0.00,CLR,,0.00,WeatherDisplay:10.37,2013-04-22 12:22:00,
2013-04-22 08:23:00,47.5,19.8,30.51,NNE,31,0.0,0.0,33,0.00,CLR,,0.00,WeatherDisplay:10.37,2013-04-22 12:23:00,
2013-04-22 08:26:00,47.8,20.8,30.51,NNE,31,0.0,0.0,34,0.00,CLR,,0.00,WeatherDisplay:10.37,2013-04-22 12:26:00,
2013-04-22 08:27:00,47.6,16.1,30.50,ESE,117,0.9,4.6,28,0.00,CLR,,0.00,WeatherDisplay:10.37,2013-04-22 12:27:00,
2013-04-22 08:28:00,47.4,15.9,30.50,ESE,117,0.2,4.6,28,0.00,CLR,,0.00,WeatherDisplay:10.37,2013-04-22 12:28:00,
2013-04-22 08:31:00,47.2,18.8,30.51,ESE,117,0.0,0.0,32,0.00,CLR,,0.00,WeatherDisplay:10.37,2013-04-22 12:31:00,
2013-04-22 08:32:00,46.4,17.4,30.51,ESE,117,0.0,0.0,31,0.00,CLR,,0.00,WeatherDisplay:10.37,2013-04-22 12:32:00,
2013-04-22 08:33:00,46.0,19.2,30.51,ESE,117,0.0,0.0,34,0.00,CLR,,0.00,WeatherDisplay:10.37,2013-04-22 12:33:00,
2013-04-22 08:36:00,46.1,21.9,30.50,SE,138,0.0,4.6,38,0.00,CLR,,0.00,WeatherDisplay:10.37,2013-04-22 12:36:00,
2013-04-22 08:37:00,46.0,21.1,30.50,SE,138,0.0,0.0,37,0.00,CLR,,0.00,WeatherDisplay:10.37,2013-04-22 12:37:00,
2013-04-22 08:38:00,45.8,20.3,30.50,SE,138,0.0,0.0,36,0.00,CLR,,0.00,WeatherDisplay:10.37,2013-04-22 12:38:00,
2013-04-22 08:41:00,46.0,21.8,30.50,SE,138,0.0,0.0,38,0.00,CLR,,0.00,WeatherDisplay:10.37,2013-04-22 12:41:00,
2013-04-22 08:42:00,45.9,20.4,30.50,SE,138,0.0,0.0,36,0.00,CLR,,0.00,WeatherDisplay:10.37,2013-04-22 12:42:00,
2013-04-22 08:43:00,45.8,21.0,30.50,SE,138,0.0,0.0,37,0.00,CLR,,0.00,WeatherDisplay:10.37,2013-04-22 12:43:00,
2013-04-22 08:47:00,44.7,23.0,30.50,NNW,343,2.5,4.6,42,0.00,CLR,,0.00,WeatherDisplay:10.37,2013-04-22 12:47:00,
2013-04-22 08:48:00,44.8,24.2,30.50,NW,320,1.9,4.6,44,0.00,CLR,,0.00,WeatherDisplay:10.37,2013-04-22 12:48:00,
2013-04-22 08:49:00,44.7,23.5,30.50,NNE,21,0.3,3.5,43,0.00,CLR,,0.00,WeatherDisplay:10.37,2013-04-22 12:49:00,
2013-04-22 08:52:00,43.9,23.4,30.50,North,349,4.1,6.9,44,0.00,CLR,,0.00,WeatherDisplay:10.37,2013-04-22 12:52:00,
2013-04-22 08:53:00,44.1,23.6,30.50,NW,315,3.7,6.9,44,0.00,CLR,,0.00,WeatherDisplay:10.37,2013-04-22 12:53:00,
2013-04-22 08:54:00,43.5,21.9,30.50,NNE,13,2.9,6.9,42,0.00,CLR,,0.00,WeatherDisplay:10.37,2013-04-22 12:54:00,
2013-04-22 08:57:00,43.9,23.4,30.50,NW,308,0.0,3.5,44,0.00,CLR,,0.00,WeatherDisplay:10.37,2013-04-22 12:57:00,
2013-04-22 08:58:00,44.1,23.0,30.50,NW,308,0.0,0.0,43,0.00,CLR,,0.00,WeatherDisplay:10.37,2013-04-22 12:58:00,
2013-04-22 08:59:00,44.4,22.1,30.50,NW,308,0.0,0.0,41,0.00,CLR,,0.00,WeatherDisplay:10.37,2013-04-22 12:59:00,
2013-04-22 09:02:00,44.8,20.1,30.50,NNW,335,2.0,0.0,37,0.00,CLR,,0.00,WeatherDisplay:10.37,2013-04-22 13:02:00,
2013-04-22 09:03:00,44.8,20.1,30.50,NNW,335,2.0,0.0,37,0.00,CLR,,0.00,WeatherDisplay:10.37,2013-04-22 13:03:00,
2013-04-22 09:04:00,44.9,19.5,30.50,NNW,335,0.0,0.0,36,0.00,CLR,,0.00,WeatherDisplay:10.37,2013-04-22 13:04:00,
2013-04-22 09:08:00,46.2,20.0,30.50,NNW,335,0.0,0.0,35,0.00,CLR,,0.00,WeatherDisplay:10.37,2013-04-22 13:08:00,
2013-04-22 09:09:00,46.2,17.9,30.50,NW,312,2.1,5.8,32,0.00,CLR,,0.00,WeatherDisplay:10.37,2013-04-22 13:09:00,
2013-04-22 09:13:00,46.6,16.8,30.50,NW,311,1.3,3.5,30,0.00,CLR,,0.00,WeatherDisplay:10.37,2013-04-22 13:13:00,
2013-04-22 09:14:00,46.7,18.4,30.50,NW,311,0.0,0.0,32,0.00,CLR,,0.00,WeatherDisplay:10.37,2013-04-22 13:14:00,
2013-04-22 09:18:00,47.6,17.6,30.50,NW,311,0.0,0.0,30,0.00,CLR,,0.00,WeatherDisplay:10.37,2013-04-22 13:18:00,
2013-04-22 09:20:00,48.2,16.6,30.50,NW,311,0.0,0.0,28,0.00,CLR,,0.00,WeatherDisplay:10.37,2013-04-22 13:20:00,
2013-04-22 09:23:00,48.2,14.0,30.50,North,359,2.0,4.6,25,0.00,CLR,,0.00,WeatherDisplay:10.37,2013-04-22 13:23:00,
2013-04-22 09:25:00,48.4,15.9,30.50,NNW,328,0.0,0.0,27,0.00,CLR,,0.00,WeatherDisplay:10.37,2013-04-22 13:25:00,
2013-04-22 09:28:00,48.1,15.6,30.50,NNW,328,0.0,0.0,27,0.00,CLR,,0.00,WeatherDisplay:10.37,2013-04-22 13:28:00,
2013-04-22 09:29:00,48.2,16.6,30.50,North,360,0.3,6.0,28,0.00,CLR,,0.00,WeatherDisplay:10.37,2013-04-22 13:29:00,
2013-04-22 09:30:00,47.8,16.2,30.50,North,1,2.0,5.8,28,0.00,CLR,,0.00,WeatherDisplay:10.37,2013-04-22 13:30:00,
2013-04-22 09:33:00,48.5,16.0,30.50,North,1,0.0,0.0,27,0.00,CLR,,0.00,WeatherDisplay:10.37,2013-04-22 13:33:00,
2013-04-22 09:34:00,48.4,15.9,30.50,North,1,0.0,0.0,27,0.00,CLR,,0.00,WeatherDisplay:10.37,2013-04-22 13:34:00,
2013-04-22 09:35:00,48.4,15.9,30.50,North,1,0.0,0.0,27,0.00,CLR,,0.00,WeatherDisplay:10.37,2013-04-22 13:35:00,
2013-04-22 09:39:00,48.6,12.4,30.50,SSW,200,0.0,0.0,23,0.00,CLR,,0.00,WeatherDisplay:10.37,2013-04-22 13:39:00,
2013-04-22 09:40:00,48.6,12.4,30.50,SSW,200,0.0,0.0,23,0.00,CLR,,0.00,WeatherDisplay:10.37,2013-04-22 13:40:00,
2013-04-22 09:44:00,49.3,12.0,30.50,SSW,200,0.0,0.0,22,0.00,CLR,,0.00,WeatherDisplay:10.37,2013-04-22 13:44:00,
2013-04-22 09:45:00,49.2,11.9,30.49,SSW,200,0.0,0.0,22,0.00,CLR,,0.00,WeatherDisplay:10.37,2013-04-22 13:45:00,
2013-04-22 09:49:00,48.1,9.9,30.49,NE,52,4.8,9.2,21,0.00,CLR,,0.00,WeatherDisplay:10.37,2013-04-22 13:49:00,
2013-04-22 09:50:00,48.4,13.2,30.49,NNE,23,4.4,9.2,24,0.00,CLR,,0.00,WeatherDisplay:10.37,2013-04-22 13:50:00,
2013-04-22 09:51:00,48.2,12.1,30.49,NNE,31,3.2,5.8,23,0.00,CLR,,0.00,WeatherDisplay:10.37,2013-04-22 13:51:00,
2013-04-22 09:54:00,48.6,10.4,30.49,NE,47,0.2,8.1,21,0.00,CLR,,0.00,WeatherDisplay:10.37,2013-04-22 13:54:00,
2013-04-22 09:55:00,48.6,10.4,30.49,ESE,113,1.0,7.3,21,0.00,CLR,,0.00,WeatherDisplay:10.37,2013-04-22 13:55:00,
2013-04-22 09:56:00,48.6,10.4,30.49,ESE,102,5.3,9.2,21,0.00,CLR,,0.00,WeatherDisplay:10.37,2013-04-22 13:56:00,
2013-04-22 10:00:00,49.9,9.2,30.49,East,89,1.5,5.8,19,0.00,CLR,,0.00,WeatherDisplay:10.37,2013-04-22 14:00:00,
2013-04-22 10:01:00,50.1,9.4,30.49,East,89,0.0,5.8,19,0.00,CLR,,0.00,WeatherDisplay:10.37,2013-04-22 14:01:00,
2013-04-22 10:05:00,48.6,8.1,30.49,East,79,5.1,8.1,19,0.00,CLR,,0.00,WeatherDisplay:10.37,2013-04-22 14:05:00,
2013-04-22 10:06:00,48.6,9.3,30.50,East,79,0.0,0.0,20,0.00,CLR,,0.00,WeatherDisplay:10.37,2013-04-22 14:06:00,
2013-04-22 10:10:00,49.9,10.4,30.49,East,89,2.5,4.6,20,0.00,CLR,,0.00,WeatherDisplay:10.37,2013-04-22 14:10:00,
2013-04-22 10:11:00,49.9,11.4,30.49,NNE,28,1.3,4.6,21,0.00,CLR,,0.00,WeatherDisplay:10.37,2013-04-22 14:11:00,
2013-04-22 10:15:00,49.9,10.4,30.49,SE,136,4.6,7.0,20,0.00,CLR,,0.00,WeatherDisplay:10.37,2013-04-22 14:15:00,
2013-04-22 10:16:00,50.2,10.6,30.49,ESE,110,5.2,9.2,20,0.00,CLR,,0.00,WeatherDisplay:10.37,2013-04-22 14:16:00,
2013-04-22 10:17:00,50.1,6.9,30.49,East,82,3.5,5.8,17,0.00,CLR,,0.00,WeatherDisplay:10.37,2013-04-22 14:17:00,
2013-04-22 10:20:00,50.0,6.8,30.49,East,93,5.2,11.5,17,0.00,CLR,,0.00,WeatherDisplay:10.37,2013-04-22 14:20:00,
2013-04-22 10:21:00,50.0,8.1,30.49,ESE,103,0.3,4.7,18,0.00,CLR,,0.00,WeatherDisplay:10.37,2013-04-22 14:21:00,
2013-04-22 10:22:00,50.2,7.0,30.49,East,82,1.2,4.6,17,0.00,CLR,,0.00,WeatherDisplay:10.37,2013-04-22 14:22:00,
2013-04-22 10:25:00,50.0,11.5,30.49,ESE,110,4.9,9.2,21,0.00,CLR,,0.00,WeatherDisplay:10.37,2013-04-22 14:25:00,
2013-04-22 10:26:00,50.1,10.5,30.49,ESE,112,9.1,11.5,20,0.00,CLR,,0.00,WeatherDisplay:10.37,2013-04-22 14:26:00,
2013-04-22 10:27:00,49.9,6.7,30.49,East,92,6.7,9.2,17,0.00,CLR,,0.00,WeatherDisplay:10.37,2013-04-22 14:27:00,
2013-04-22 10:30:00,50.2,5.6,30.49,ESE,109,0.1,4.4,16,0.00,CLR,,0.00,WeatherDisplay:10.37,2013-04-22 14:30:00,
2013-04-22 10:31:00,50.1,5.6,30.49,NNE,20,2.0,5.8,16,0.00,CLR,,0.00,WeatherDisplay:10.37,2013-04-22 14:31:00,
2013-04-22 10:32:00,50.2,5.6,30.49,NE,41,1.7,4.6,16,0.00,CLR,,0.00,WeatherDisplay:10.37,2013-04-22 14:32:00,
2013-04-22 10:35:00,50.1,4.2,30.49,ENE,78,3.0,8.1,15,0.00,CLR,,0.00,WeatherDisplay:10.37,2013-04-22 14:35:00,
2013-04-22 10:36:00,50.0,5.5,30.49,East,86,2.7,8.1,16,0.00,CLR,,0.00,WeatherDisplay:10.37,2013-04-22 14:36:00,
2013-04-22 10:37:00,50.1,5.6,30.49,SE,124,2.0,5.8,16,0.00,CLR,,0.00,WeatherDisplay:10.37,2013-04-22 14:37:00,
2013-04-22 10:40:00,50.6,3.1,30.49,ENE,76,0.6,6.9,14,0.00,CLR,,0.00,WeatherDisplay:10.37,2013-04-22 14:40:00,
2013-04-22 10:41:00,50.7,6.1,30.49,ENE,64,1.3,5.4,16,0.00,CLR,,0.00,WeatherDisplay:10.37,2013-04-22 14:41:00,
2013-04-22 10:42:00,51.2,0.2,30.49,ENE,75,3.6,8.1,12,0.00,CLR,,0.00,WeatherDisplay:10.37,2013-04-22 14:42:00,
2013-04-22 10:46:00,50.2,1.1,30.49,East,100,6.5,8.1,13,0.00,CLR,,0.00,WeatherDisplay:10.37,2013-04-22 14:46:00,
2013-04-22 10:47:00,50.4,2.9,30.49,East,88,6.4,8.1,14,0.00,CLR,,0.00,WeatherDisplay:10.37,2013-04-22 14:47:00,
2013-04-22 10:51:00,50.1,4.2,30.49,East,92,6.6,15.0,15,0.00,CLR,,0.00,WeatherDisplay:10.37,2013-04-22 14:51:00,
2013-04-22 10:52:00,49.9,5.4,30.49,ESE,109,6.3,9.2,16,0.00,CLR,,0.00,WeatherDisplay:10.37,2013-04-22 14:52:00,
2013-04-22 10:56:00,50.2,5.6,30.49,SE,136,5.0,11.5,16,0.00,CLR,,0.00,WeatherDisplay:10.37,2013-04-22 14:56:00,
2013-04-22 10:57:00,50.3,5.7,30.49,East,89,3.7,6.3,16,0.00,CLR,,0.00,WeatherDisplay:10.37,2013-04-22 14:57:00,
2013-04-22 10:58:00,50.0,1.0,30.49,East,97,6.0,10.4,13,0.00,CLR,,0.00,WeatherDisplay:10.37,2013-04-22 14:58:00,
2013-04-22 11:02:00,50.4,7.1,30.49,ESE,117,6.6,9.2,17,0.00,CLR,,0.00,WeatherDisplay:10.37,2013-04-22 15:02:00,
2013-04-22 11:03:00,50.5,1.4,30.48,ESE,113,6.0,8.1,13,0.00,CLR,,0.00,WeatherDisplay:10.37,2013-04-22 15:03:00,
2013-04-22 11:06:00,50.3,1.2,30.48,ENE,68,4.1,6.9,13,0.00,CLR,,0.00,WeatherDisplay:10.37,2013-04-22 15:06:00,
2013-04-22 11:07:00,50.1,-0.6,30.48,NE,54,4.0,6.9,12,0.00,CLR,,0.00,WeatherDisplay:10.37,2013-04-22 15:07:00,
2013-04-22 11:08:00,50.2,1.1,30.48,NE,34,3.5,8.1,13,0.00,CLR,,0.00,WeatherDisplay:10.37,2013-04-22 15:08:00,
2013-04-22 11:12:00,50.6,1.5,30.48,East,86,2.7,9.2,13,0.00,CLR,,0.00,WeatherDisplay:10.37,2013-04-22 15:12:00,
2013-04-22 11:13:00,50.7,-0.2,30.48,NE,48,2.2,4.6,12,0.00,CLR,,0.00,WeatherDisplay:10.37,2013-04-22 15:13:00,
2013-04-22 11:14:00,50.8,-0.1,30.48,East,97,3.3,5.8,12,0.00,CLR,,0.00,WeatherDisplay:10.37,2013-04-22 15:14:00,
2013-04-22 11:17:00,51.0,6.3,30.48,East,89,1.1,4.6,16,0.00,CLR,,0.00,WeatherDisplay:10.37,2013-04-22 15:17:00,
2013-04-22 11:18:00,50.6,1.5,30.48,ENE,59,1.8,4.6,13,0.00,CLR,,0.00,WeatherDisplay:10.37,2013-04-22 15:18:00,
2013-04-22 11:19:00,50.8,1.6,30.48,East,89,2.4,6.0,13,0.00,CLR,,0.00,WeatherDisplay:10.37,2013-04-22 15:19:00,
2013-04-22 11:22:00,50.6,1.5,30.48,NE,35,3.4,6.9,13,0.00,CLR,,0.00,WeatherDisplay:10.37,2013-04-22 15:22:00,
2013-04-22 11:23:00,51.2,0.2,30.48,ENE,78,3.4,6.9,12,0.00,CLR,,0.00,WeatherDisplay:10.37,2013-04-22 15:23:00,
2013-04-22 11:24:00,50.6,1.5,30.48,ENE,68,3.7,6.9,13,0.00,CLR,,0.00,WeatherDisplay:10.37,2013-04-22 15:24:00,
2013-04-22 11:27:00,50.3,1.2,30.48,ENE,71,1.7,4.6,13,0.00,CLR,,0.00,WeatherDisplay:10.37,2013-04-22 15:27:00,
2013-04-22 11:28:00,50.7,3.1,30.48,ENE,58,1.6,4.6,14,0.00,CLR,,0.00,WeatherDisplay:10.37,2013-04-22 15:28:00,
2013-04-22 11:29:00,50.4,-0.4,30.48,ENE,58,1.0,6.9,12,0.00,CLR,,0.00,WeatherDisplay:10.37,2013-04-22 15:29:00,
2013-04-22 11:30:00,50.9,1.7,30.48,ENE,58,0.0,0.0,13,0.00,CLR,,0.00,WeatherDisplay:10.37,2013-04-22 15:30:00,
2013-04-22 11:32:00,50.5,1.4,30.48,NNE,20,3.7,5.8,13,0.00,CLR,,0.00,WeatherDisplay:10.37,2013-04-22 15:32:00,
2013-04-22 11:34:00,50.6,3.1,30.48,NNE,18,1.2,5.8,14,0.00,CLR,,0.00,WeatherDisplay:10.37,2013-04-22 15:34:00,
2013-04-22 11:35:00,51.2,3.5,30.47,SSE,158,1.8,5.8,14,0.00,CLR,,0.00,WeatherDisplay:10.37,2013-04-22 15:35:00,
2013-04-22 11:38:00,51.7,-3.2,30.47,ESE,117,1.8,9.2,10,0.00,CLR,,0.00,WeatherDisplay:10.37,2013-04-22 15:38:00,
2013-04-22 11:39:00,52.0,-7.7,30.47,ENE,62,5.2,9.2,8,0.00,CLR,,0.00,WeatherDisplay:10.37,2013-04-22 15:39:00,
2013-04-22 11:40:00,51.9,-7.7,30.47,SE,133,0.9,6.9,8,0.00,CLR,,0.00,WeatherDisplay:10.37,2013-04-22 15:40:00,
2013-04-22 11:43:00,53.8,-1.6,30.46,SSE,151,5.4,6.9,10,0.00,CLR,,0.00,WeatherDisplay:10.37,2013-04-22 15:43:00,
2013-04-22 11:44:00,53.7,-1.7,30.46,SE,127,6.3,8.1,10,0.00,CLR,,0.00,WeatherDisplay:10.37,2013-04-22 15:44:00,
2013-04-22 11:46:00,53.5,-4.1,30.46,SE,133,1.3,5.8,9,0.00,CLR,,0.00,WeatherDisplay:10.37,2013-04-22 15:46:00,
2013-04-22 11:48:00,54.3,-5.9,30.46,SE,128,0.0,6.9,8,0.00,CLR,,0.00,WeatherDisplay:10.37,2013-04-22 15:48:00,
2013-04-22 11:49:00,53.6,-9.2,30.46,SE,128,0.0,0.0,7,0.00,CLR,,0.00,WeatherDisplay:10.37,2013-04-22 15:49:00,
2013-04-22 11:50:00,53.9,-9.0,30.46,SE,128,0.0,0.0,7,0.00,CLR,,0.00,WeatherDisplay:10.37,2013-04-22 15:50:00,
2013-04-22 11:51:00,53.0,-4.5,30.46,NE,49,4.8,5.0,9,0.00,CLR,,0.00,WeatherDisplay:10.37,2013-04-22 15:51:00,
2013-04-22 11:53:00,51.8,-5.4,30.46,ENE,58,3.1,6.9,9,0.00,CLR,,0.00,WeatherDisplay:10.37,2013-04-22 15:53:00,
2013-04-22 11:54:00,52.2,-5.1,30.46,ESE,107,0.7,3.5,9,0.00,CLR,,0.00,WeatherDisplay:10.37,2013-04-22 15:54:00,
2013-04-22 11:55:00,52.2,-2.9,30.46,NE,55,1.9,6.6,10,0.00,CLR,,0.00,WeatherDisplay:10.37,2013-04-22 15:55:00,
2013-04-22 11:56:00,52.2,-0.8,30.46,NE,37,0.5,6.9,11,0.00,CLR,,0.00,WeatherDisplay:10.37,2013-04-22 15:56:00,
2013-04-22 11:58:00,53.4,-4.1,30.45,NE,37,0.0,0.0,9,0.00,CLR,,0.00,WeatherDisplay:10.37,2013-04-22 15:58:00,
2013-04-22 11:59:00,53.8,-6.3,30.45,ENE,75,3.9,10.4,8,0.00,CLR,,0.00,WeatherDisplay:10.37,2013-04-22 15:59:00,
2013-04-22 12:00:00,53.6,-9.2,30.45,ENE,78,4.1,10.4,7,0.00,CLR,,0.00,WeatherDisplay:10.37,2013-04-22 16:00:00,
2013-04-22 12:01:00,53.7,-9.1,30.45,ENE,78,0.0,6.9,7,0.00,CLR,,0.00,WeatherDisplay:10.37,2013-04-22 16:01:00,
2013-04-22 12:03:00,53.5,-6.5,30.45,East,92,2.9,6.9,8,0.00,CLR,,0.00,WeatherDisplay:10.37,2013-04-22 16:03:00,
2013-04-22 12:04:00,53.1,-2.2,30.45,SSE,147,7.8,9.2,10,0.00,CLR,,0.00,WeatherDisplay:10.37,2013-04-22 16:04:00,
2013-04-22 12:05:00,53.7,-1.7,30.45,NE,56,4.8,9.2,10,0.00,CLR,,0.00,WeatherDisplay:10.37,2013-04-22 16:05:00,
2013-04-22 12:06:00,53.2,-2.1,30.45,NE,55,5.1,6.9,10,0.00,CLR,,0.00,WeatherDisplay:10.37,2013-04-22 16:06:00,
2013-04-22 12:09:00,52.9,-2.3,30.44,South,169,4.8,8.1,10,0.00,CLR,,0.00,WeatherDisplay:10.37,2013-04-22 16:09:00,
2013-04-22 12:10:00,52.7,-2.5,30.44,ESE,117,3.6,5.8,10,0.00,CLR,,0.00,WeatherDisplay:10.37,2013-04-22 16:10:00,
2013-04-22 12:11:00,54.5,-5.8,30.44,SE,137,2.7,5.8,8,0.00,CLR,,0.00,WeatherDisplay:10.37,2013-04-22 16:11:00,
2013-04-22 12:12:00,54.8,-8.3,30.44,SE,137,0.0,5.8,7,0.00,CLR,,0.00,WeatherDisplay:10.37,2013-04-22 16:12:00,
2013-04-22 12:14:00,55.5,-2.5,30.44,ESE,120,5.6,7.7,9,0.00,CLR,,0.00,WeatherDisplay:10.37,2013-04-22 16:14:00,
2013-04-22 12:15:00,55.4,-0.4,30.44,SSE,147,6.3,8.1,10,0.00,CLR,,0.00,WeatherDisplay:10.37,2013-04-22 16:15:00,
2013-04-22 12:16:00,57.8,-6.1,30.44,SSE,150,2.3,5.8,7,0.00,CLR,,0.00,WeatherDisplay:10.37,2013-04-22 16:16:00,
2013-04-22 12:17:00,58.3,-8.9,30.44,SSE,150,0.0,0.0,6,0.00,CLR,,0.00,WeatherDisplay:10.37,2013-04-22 16:17:00,
2013-04-22 12:19:00,59.5,-4.8,30.44,SSE,150,0.0,0.0,7,0.00,CLR,,0.00,WeatherDisplay:10.37,2013-04-22 16:19:00,
2013-04-22 12:20:00,60.0,-7.6,30.44,SSE,150,0.0,0.0,6,0.00,CLR,,0.00,WeatherDisplay:10.37,2013-04-22 16:20:00,
2013-04-22 12:21:00,59.2,-8.2,30.44,SSE,150,0.0,0.0,6,0.00,CLR,,0.00,WeatherDisplay:10.37,2013-04-22 16:21:00,
2013-04-22 12:23:00,59.9,-4.5,30.44,ESE,107,2.0,5.6,7,0.00,CLR,,0.00,WeatherDisplay:10.37,2013-04-22 16:23:00,
2013-04-22 12:24:00,60.0,-4.4,30.44,WNW,295,5.8,6.9,7,0.00,CLR,,0.00,WeatherDisplay:10.37,2013-04-22 16:24:00,
2013-04-22 12:26:00,59.0,-2.4,30.44,WNW,289,4.6,5.8,8,0.00,CLR,,0.00,WeatherDisplay:10.37,2013-04-22 16:26:00,
2013-04-22 12:28:00,56.1,0.2,30.44,NNW,333,3.6,7.1,10,0.00,CLR,,0.00,WeatherDisplay:10.37,2013-04-22 16:28:00,
2013-04-22 12:29:00,54.8,-0.9,30.43,North,11,3.7,6.9,10,0.00,CLR,,0.00,WeatherDisplay:10.37,2013-04-22 16:29:00,
2013-04-22 12:30:00,54.3,-1.2,30.43,North,360,3.5,6.9,10,0.00,CLR,,0.00,WeatherDisplay:10.37,2013-04-22 16:30:00,
2013-04-22 12:31:00,53.2,-2.1,30.43,WNW,291,5.4,9.2,10,0.00,CLR,,0.00,WeatherDisplay:10.37,2013-04-22 16:31:00,
2013-04-22 12:32:00,52.6,1.3,30.43,WNW,284,3.5,10.4,12,0.00,CLR,,0.00,WeatherDisplay:10.37,2013-04-22 16:32:00,
2013-04-22 12:34:00,51.9,4.1,30.43,NW,312,2.9,10.4,14,0.00,CLR,,0.00,WeatherDisplay:10.37,2013-04-22 16:34:00,
2013-04-22 12:35:00,51.1,0.1,30.43,NW,322,1.8,6.9,12,0.00,CLR,,0.00,WeatherDisplay:10.37,2013-04-22 16:35:00,
2013-04-22 12:36:00,51.8,4.0,30.43,North,360,2.6,4.6,14,0.00,CLR,,0.00,WeatherDisplay:10.37,2013-04-22 16:36:00,
2013-04-22 12:37:00,51.5,-3.4,30.43,North,360,2.9,5.8,10,0.00,CLR,,0.00,WeatherDisplay:10.37,2013-04-22 16:37:00,
2013-04-22 12:39:00,52.2,-2.9,30.43,North,360,0.0,0.0,10,0.00,CLR,,0.00,WeatherDisplay:10.37,2013-04-22 16:39:00,
2013-04-22 12:40:00,52.5,-7.3,30.43,North,360,0.0,4.3,8,0.00,CLR,,0.00,WeatherDisplay:10.37,2013-04-22 16:40:00,
2013-04-22 12:41:00,52.4,-7.4,30.43,SE,126,1.1,0.0,8,0.00,CLR,,0.00,WeatherDisplay:10.37,2013-04-22 16:41:00,
2013-04-22 12:42:00,54.1,-1.4,30.43,SE,126,0.0,0.0,10,0.00,CLR,,0.00,WeatherDisplay:10.37,2013-04-22 16:42:00,
2013-04-22 12:44:00,53.4,-9.3,30.42,East,79,1.0,3.5,7,0.00,CLR,,0.00,WeatherDisplay:10.37,2013-04-22 16:44:00,
2013-04-22 12:45:00,53.4,-9.3,30.42,East,79,0.8,3.5,7,0.00,CLR,,0.00,WeatherDisplay:10.37,2013-04-22 16:45:00,
2013-04-22 12:46:00,53.3,-6.7,30.43,East,79,0.0,0.0,8,0.00,CLR,,0.00,WeatherDisplay:10.37,2013-04-22 16:46:00,
2013-04-22 12:48:00,57.5,-6.3,30.42,East,79,0.0,0.0,7,0.00,CLR,,0.00,WeatherDisplay:10.37,2013-04-22 16:48:00,
2013-04-22 12:50:00,58.3,-8.9,30.42,East,79,0.0,0.0,6,0.00,CLR,,0.00,WeatherDisplay:10.37,2013-04-22 16:50:00,
2013-04-22 12:51:00,57.7,-9.3,30.42,East,79,0.0,0.0,6,0.00,CLR,,0.00,WeatherDisplay:10.37,2013-04-22 16:51:00,
2013-04-22 12:53:00,55.9,-10.6,30.42,NE,42,3.7,6.9,6,0.00,CLR,,0.00,WeatherDisplay:10.37,2013-04-22 16:53:00,
2013-04-22 12:55:00,54.6,-8.4,30.42,North,6,0.2,6.9,7,0.00,CLR,,0.00,WeatherDisplay:10.37,2013-04-22 16:55:00,
2013-04-22 12:56:00,54.8,-11.4,30.42,North,6,0.0,0.0,6,0.00,CLR,,0.00,WeatherDisplay:10.37,2013-04-22 16:56:00,
2013-04-22 12:58:00,55.4,-7.8,30.42,North,6,0.0,0.0,7,0.00,CLR,,0.00,WeatherDisplay:10.37,2013-04-22 16:58:00,
2013-04-22 13:00:00,54.8,-5.5,30.42,NNE,24,1.6,5.1,8,0.00,CLR,,0.00,WeatherDisplay:10.37,2013-04-22 17:00:00,
2013-04-22 13:01:00,55.1,-8.1,30.42,NE,34,3.3,5.8,7,0.00,CLR,,0.00,WeatherDisplay:10.37,2013-04-22 17:01:00,
2013-04-22 13:03:00,56.4,-10.2,30.41,NNE,23,1.5,5.5,6,0.00,CLR,,0.00,WeatherDisplay:10.37,2013-04-22 17:03:00,
2013-04-22 13:05:00,56.4,-10.2,30.41,NE,52,4.6,6.7,6,0.00,CLR,,0.00,WeatherDisplay:10.37,2013-04-22 17:05:00,
2013-04-22 13:06:00,56.0,-10.5,30.41,East,93,6.0,6.0,6,0.00,CLR,,0.00,WeatherDisplay:10.37,2013-04-22 17:06:00,
2013-04-22 13:07:00,55.7,-14.4,30.41,East,99,6.7,9.5,5,0.00,CLR,,0.00,WeatherDisplay:10.37,2013-04-22 17:07:00,
2013-04-22 13:08:00,53.9,-15.7,30.41,East,92,5.1,8.1,5,0.00,CLR,,0.00,WeatherDisplay:10.37,2013-04-22 17:08:00,
2013-04-22 13:11:00,53.7,-12.2,30.41,East,85,0.0,5.8,6,0.00,CLR,,0.00,WeatherDisplay:10.37,2013-04-22 17:11:00,
2013-04-22 13:12:00,55.9,-10.6,30.41,East,85,0.0,0.0,6,0.00,CLR,,0.00,WeatherDisplay:10.37,2013-04-22 17:12:00,
2013-04-22 13:14:00,58.3,-12.5,30.41,East,99,2.1,6.3,5,0.00,CLR,,0.00,WeatherDisplay:10.37,2013-04-22 17:14:00,
2013-04-22 13:16:00,60.6,-10.9,30.41,East,89,0.0,0.0,5,0.00,CLR,,0.00,WeatherDisplay:10.37,2013-04-22 17:16:00,
2013-04-22 13:17:00,60.5,-11.0,30.41,SSE,147,2.1,8.3,5,0.00,CLR,,0.00,WeatherDisplay:10.37,2013-04-22 17:17:00,
2013-04-22 13:19:00,61.1,-10.5,30.40,East,89,6.2,8.0,5,0.00,CLR,,0.00,WeatherDisplay:10.37,2013-04-22 17:19:00,
2013-04-22 13:21:00,59.3,-11.8,30.40,NE,34,7.3,9.2,5,0.00,CLR,,0.00,WeatherDisplay:10.37,2013-04-22 17:21:00,
2013-04-22 13:22:00,58.9,-12.1,30.40,NE,38,7.4,9.2,5,0.00,CLR,,0.00,WeatherDisplay:10.37,2013-04-22 17:22:00,
2013-04-22 13:24:00,60.0,-11.3,30.40,ESE,104,0.0,8.1,5,0.00,CLR,,0.00,WeatherDisplay:10.37,2013-04-22 17:24:00,
2013-04-22 13:26:00,60.7,-10.8,30.40,East,86,0.0,3.5,5,0.00,CLR,,0.00,WeatherDisplay:10.37,2013-04-22 17:26:00,
2013-04-22 13:27:00,60.7,-10.8,30.40,East,85,0.4,5.0,5,0.00,CLR,,0.00,WeatherDisplay:10.37,2013-04-22 17:27:00,
2013-04-22 13:29:00,60.0,-15.8,30.40,SE,128,3.1,6.8,4,0.00,CLR,,0.00,WeatherDisplay:10.37,2013-04-22 17:29:00,
2013-04-22 13:31:00,60.1,-11.3,30.40,NE,34,5.7,11.5,5,0.00,CLR,,0.00,WeatherDisplay:10.37,2013-04-22 17:31:00,
2013-04-22 13:32:00,59.7,-16.0,30.40,NE,55,5.4,11.5,4,0.00,CLR,,0.00,WeatherDisplay:10.37,2013-04-22 17:32:00,
2013-04-22 13:34:00,58.6,-8.6,30.40,NE,44,4.0,9.2,6,0.00,CLR,,0.00,WeatherDisplay:10.37,2013-04-22 17:34:00,
2013-04-22 13:36:00,57.8,-12.9,30.40,NNE,28,1.4,4.6,5,0.00,CLR,,0.00,WeatherDisplay:10.37,2013-04-22 17:36:00,
2013-04-22 13:37:00,57.8,-12.9,30.40,NNE,28,1.4,4.6,5,0.00,CLR,,0.00,WeatherDisplay:10.37,2013-04-22 17:37:00,
2013-04-22 13:39:00,57.0,-13.5,30.40,East,97,5.0,8.1,5,0.00,CLR,,0.00,WeatherDisplay:10.37,2013-04-22 17:39:00,
2013-04-22 13:42:00,58.2,-12.6,30.39,ENE,71,1.5,6.1,5,0.00,CLR,,0.00,WeatherDisplay:10.37,2013-04-22 17:42:00,
2013-04-22 13:44:00,60.4,-7.3,30.39,NW,325,0.6,3.5,6,0.00,CLR,,0.00,WeatherDisplay:10.37,2013-04-22 17:44:00,
2013-04-22 13:47:00,58.1,-17.1,30.39,East,80,8.8,16.1,4,0.00,CLR,,0.00,WeatherDisplay:10.37,2013-04-22 17:47:00,
2013-04-22 13:49:00,56.7,-10.0,30.39,NNE,17,6.9,11.5,6,0.00,CLR,,0.00,WeatherDisplay:10.37,2013-04-22 17:49:00,
2013-04-22 13:52:00,58.2,-8.9,30.39,NNE,32,1.4,4.2,6,0.00,CLR,,0.00,WeatherDisplay:10.37,2013-04-22 17:52:00,
2013-04-22 13:53:00,58.8,-8.5,30.39,NE,40,2.3,5.8,6,0.00,CLR,,0.00,WeatherDisplay:10.37,2013-04-22 17:53:00,
2013-04-22 13:55:00,58.6,-8.6,30.39,NNE,13,2.3,6.9,6,0.00,CLR,,0.00,WeatherDisplay:10.37,2013-04-22 17:55:00,
2013-04-22 13:57:00,58.6,-12.3,30.39,NE,54,7.0,9.2,5,0.00,CLR,,0.00,WeatherDisplay:10.37,2013-04-22 17:57:00,
2013-04-22 13:58:00,59.5,-11.7,30.39,East,93,6.3,9.2,5,0.00,CLR,,0.00,WeatherDisplay:10.37,2013-04-22 17:58:00,
2013-04-22 14:00:00,57.6,-13.0,30.38,ENE,71,0.0,8.1,5,0.00,CLR,,0.00,WeatherDisplay:10.37,2013-04-22 18:00:00,
2013-04-22 14:02:00,58.8,-8.5,30.38,NNE,31,0.1,2.4,6,0.00,CLR,,0.00,WeatherDisplay:10.37,2013-04-22 18:02:00,
2013-04-22 14:03:00,59.0,-8.3,30.38,ESE,112,1.2,4.7,6,0.00,CLR,,0.00,WeatherDisplay:10.37,2013-04-22 18:03:00,
2013-04-22 14:05:00,59.8,-11.5,30.38,NE,37,4.2,9.0,5,0.00,CLR,,0.00,WeatherDisplay:10.37,2013-04-22 18:05:00,
2013-04-22 14:07:00,59.4,-11.8,30.38,NE,44,2.8,7.1,5,0.00,CLR,,0.00,WeatherDisplay:10.37,2013-04-22 18:07:00,
2013-04-22 14:08:00,59.4,-11.8,30.38,ENE,76,5.0,5.8,5,0.00,CLR,,0.00,WeatherDisplay:10.37,2013-04-22 18:08:00,
2013-04-22 14:10:00,59.2,-11.9,30.38,East,97,6.9,9.2,5,0.00,CLR,,0.00,WeatherDisplay:10.37,2013-04-22 18:10:00,
2013-04-22 14:13:00,60.7,-7.1,30.38,NE,56,0.0,0.0,6,0.00,CLR,,0.00,WeatherDisplay:10.37,2013-04-22 18:13:00,
2013-04-22 14:16:00,60.7,-15.3,30.38,NE,56,6.9,8.1,4,0.00,CLR,,0.00,WeatherDisplay:10.37,2013-04-22 18:16:00,
2013-04-22 14:18:00,61.2,-10.5,30.38,East,86,4.9,8.1,5,0.00,CLR,,0.00,WeatherDisplay:10.37,2013-04-22 18:18:00,
2013-04-22 14:21:00,59.4,-11.8,30.38,ENE,78,8.1,13.8,5,0.00,CLR,,0.00,WeatherDisplay:10.37,2013-04-22 18:21:00,
2013-04-22 14:23:00,59.6,-11.6,30.38,ESE,106,6.6,12.7,5,0.00,CLR,,0.00,WeatherDisplay:10.37,2013-04-22 18:23:00,
2013-04-22 14:24:00,59.6,-11.6,30.38,ENE,65,8.8,11.5,5,0.00,CLR,,0.00,WeatherDisplay:10.37,2013-04-22 18:24:00,
2013-04-22 14:26:00,58.3,-12.5,30.38,ENE,69,6.9,11.5,5,0.00,CLR,,0.00,WeatherDisplay:10.37,2013-04-22 18:26:00,
2013-04-22 14:28:00,57.1,-13.4,30.38,ESE,102,7.9,10.4,5,0.00,CLR,,0.00,WeatherDisplay:10.37,2013-04-22 18:28:00,
2013-04-22 14:29:00,56.4,-18.3,30.37,East,96,4.5,8.1,4,0.00,CLR,,0.00,WeatherDisplay:10.37,2013-04-22 18:29:00,
2013-04-22 14:31:00,59.8,-15.9,30.37,ENE,71,4.3,9.2,4,0.00,CLR,,0.00,WeatherDisplay:10.37,2013-04-22 18:31:00,
2013-04-22 14:33:00,59.4,-11.8,30.37,ESE,121,6.3,9.2,5,0.00,CLR,,0.00,WeatherDisplay:10.37,2013-04-22 18:33:00,
2013-04-22 14:34:00,59.3,-11.8,30.37,East,95,8.5,9.2,5,0.00,CLR,,0.00,WeatherDisplay:10.37,2013-04-22 18:34:00,
2013-04-22 14:36:00,59.4,-8.1,30.37,NNE,27,6.1,10.4,6,0.00,CLR,,0.00,WeatherDisplay:10.37,2013-04-22 18:36:00,
2013-04-22 14:38:00,60.3,-11.1,30.37,East,88,5.8,12.9,5,0.00,CLR,,0.00,WeatherDisplay:10.37,2013-04-22 18:38:00,
2013-04-22 14:39:00,59.8,-15.9,30.37,SE,128,7.1,12.7,4,0.00,CLR,,0.00,WeatherDisplay:10.37,2013-04-22 18:39:00,
2013-04-22 14:41:00,60.2,-15.6,30.36,NE,35,6.9,12.7,4,0.00,CLR,,0.00,WeatherDisplay:10.37,2013-04-22 18:41:00,
2013-04-22 14:43:00,60.8,-7.0,30.36,NE,34,3.3,8.1,6,0.00,CLR,,0.00,WeatherDisplay:10.37,2013-04-22 18:43:00,
2013-04-22 14:44:00,61.0,-10.6,30.36,ESE,113,5.6,9.9,5,0.00,CLR,,0.00,WeatherDisplay:10.37,2013-04-22 18:44:00,
2013-04-22 14:46:00,60.0,-11.3,30.37,ENE,58,7.4,9.2,5,0.00,CLR,,0.00,WeatherDisplay:10.37,2013-04-22 18:46:00,
2013-04-22 14:49:00,61.1,-15.0,30.37,East,89,1.5,5.8,4,0.00,CLR,,0.00,WeatherDisplay:10.37,2013-04-22 18:49:00,
2013-04-22 14:51:00,61.6,-14.7,30.36,East,90,0.8,3.5,4,0.00,CLR,,0.00,WeatherDisplay:10.37,2013-04-22 18:51:00,
2013-04-22 14:54:00,62.8,-9.3,30.36,ESE,121,3.1,6.9,5,0.00,CLR,,0.00,WeatherDisplay:10.37,2013-04-22 18:54:00,
2013-04-22 14:55:00,62.9,-13.7,30.36,East,85,4.8,7.8,4,0.00,CLR,,0.00,WeatherDisplay:10.37,2013-04-22 18:55:00,
2013-04-22 14:56:00,61.9,-20.1,30.36,East,96,6.7,9.2,3,0.00,CLR,,0.00,WeatherDisplay:10.37,2013-04-22 18:56:00,
2013-04-22 14:59:00,61.7,-10.1,30.36,ESE,102,7.3,11.4,5,0.00,CLR,,0.00,WeatherDisplay:10.37,2013-04-22 18:59:00,
2013-04-22 15:00:00,62.2,-9.7,30.36,SE,137,8.3,12.7,5,0.00,CLR,,0.00,WeatherDisplay:10.37,2013-04-22 19:00:00,
2013-04-22 15:02:00,60.2,-11.2,30.36,East,92,11.3,12.7,5,0.00,CLR,,0.00,WeatherDisplay:10.37,2013-04-22 19:02:00,
2013-04-22 15:04:00,60.7,-15.3,30.36,ENE,58,2.5,6.9,4,0.00,CLR,,0.00,WeatherDisplay:10.37,2013-04-22 19:04:00,
2013-04-22 15:05:00,61.0,-10.6,30.36,East,83,2.7,8.1,5,0.00,CLR,,0.00,WeatherDisplay:10.37,2013-04-22 19:05:00,
2013-04-22 15:06:00,61.3,-10.4,30.36,NE,44,4.7,8.1,5,0.00,CLR,,0.00,WeatherDisplay:10.37,2013-04-22 19:06:00,
2013-04-22 15:08:00,61.6,-14.7,30.36,East,92,4.5,11.5,4,0.00,CLR,,0.00,WeatherDisplay:10.37,2013-04-22 19:08:00,
2013-04-22 15:09:00,62.0,-14.4,30.35,ESE,110,4.6,11.7,4,0.00,CLR,,0.00,WeatherDisplay:10.37,2013-04-22 19:09:00,
2013-04-22 15:10:00,62.0,-6.2,30.35,SE,127,8.8,13.8,6,0.00,CLR,,0.00,WeatherDisplay:10.37,2013-04-22 19:10:00,
2013-04-22 15:11:00,62.4,-9.6,30.35,East,93,8.0,13.8,5,0.00,CLR,,0.00,WeatherDisplay:10.37,2013-04-22 19:11:00,
2013-04-22 15:13:00,63.5,-8.8,30.35,SE,124,7.2,11.5,5,0.00,CLR,,0.00,WeatherDisplay:10.37,2013-04-22 19:13:00,
2013-04-22 15:14:00,63.1,-13.6,30.35,NE,45,5.7,10.4,4,0.00,CLR,,0.00,WeatherDisplay:10.37,2013-04-22 19:14:00,
2013-04-22 15:15:00,63.5,-8.8,30.35,NE,45,3.0,8.1,5,0.00,CLR,,0.00,WeatherDisplay:10.37,2013-04-22 19:15:00,
2013-04-22 15:16:00,63.9,-8.5,30.35,NE,45,0.0,8.1,5,0.00,CLR,,0.00,WeatherDisplay:10.37,2013-04-22 19:16:00,
2013-04-22 15:18:00,64.7,-8.0,30.35,SE,136,9.6,12.7,5,0.00,CLR,,0.00,WeatherDisplay:10.37,2013-04-22 19:18:00,
2013-04-22 15:20:00,64.1,-18.6,30.35,East,96,9.1,11.5,3,0.00,CLR,,0.00,WeatherDisplay:10.37,2013-04-22 19:20:00,
2013-04-22 15:21:00,62.3,-14.2,30.35,ESE,109,8.7,12.7,4,0.00,CLR,,0.00,WeatherDisplay:10.37,2013-04-22 19:21:00,
2013-04-22 15:23:00,62.5,-14.0,30.35,ENE,59,4.4,6.9,4,0.00,CLR,,0.00,WeatherDisplay:10.37,2013-04-22 19:23:00,
2013-04-22 15:25:00,61.0,-15.1,30.35,NNE,18,5.8,9.2,4,0.00,CLR,,0.00,WeatherDisplay:10.37,2013-04-22 19:25:00,
2013-04-22 15:26:00,61.2,-10.5,30.35,NE,51,5.1,8.1,5,0.00,CLR,,0.00,WeatherDisplay:10.37,2013-04-22 19:26:00,
2013-04-22 15:28:00,62.4,-9.6,30.35,North,8,0.0,4.6,5,0.00,CLR,,0.00,WeatherDisplay:10.37,2013-04-22 19:28:00,
2013-04-22 15:30:00,62.0,-9.9,30.35,NNE,30,4.3,10.4,5,0.00,CLR,,0.00,WeatherDisplay:10.37,2013-04-22 19:30:00,
2013-04-22 15:31:00,61.8,-14.5,30.34,East,100,3.2,10.4,4,0.00,CLR,,0.00,WeatherDisplay:10.37,2013-04-22 19:31:00,
2013-04-22 15:34:00,62.4,-14.1,30.35,NNE,20,3.8,9.2,4,0.00,CLR,,0.00,WeatherDisplay:10.37,2013-04-22 19:34:00,
2013-04-22 15:35:00,62.8,-13.8,30.34,NNE,20,0.0,3.5,4,0.00,CLR,,0.00,WeatherDisplay:10.37,2013-04-22 19:35:00,
2013-04-22 15:36:00,62.9,-13.7,30.34,NNE,20,0.0,0.0,4,0.00,CLR,,0.00,WeatherDisplay:10.37,2013-04-22 19:36:00,
2013-04-22 15:37:00,62.8,-13.8,30.34,NE,54,2.8,8.1,4,0.00,CLR,,0.00,WeatherDisplay:10.37,2013-04-22 19:37:00,
2013-04-22 15:39:00,61.4,-14.8,30.34,NNE,30,7.1,11.5,4,0.00,CLR,,0.00,WeatherDisplay:10.37,2013-04-22 19:39:00,
2013-04-22 15:40:00,61.2,-10.5,30.34,NNE,24,2.3,11.5,5,0.00,CLR,,0.00,WeatherDisplay:10.37,2013-04-22 19:40:00,
2013-04-22 15:41:00,61.9,-14.4,30.34,NNE,24,0.0,5.8,4,0.00,CLR,,0.00,WeatherDisplay:10.37,2013-04-22 19:41:00,
2013-04-22 15:42:00,62.1,-14.3,30.34,NNE,24,0.0,0.0,4,0.00,CLR,,0.00,WeatherDisplay:10.37,2013-04-22 19:42:00,
2013-04-22 15:44:00,63.1,-13.6,30.34,NNE,24,0.0,0.0,4,0.00,CLR,,0.00,WeatherDisplay:10.37,2013-04-22 19:44:00,
2013-04-22 15:46:00,62.9,-13.7,30.34,East,85,4.1,10.4,4,0.00,CLR,,0.00,WeatherDisplay:10.37,2013-04-22 19:46:00,
2013-04-22 15:47:00,63.1,-9.1,30.34,East,88,6.2,10.4,5,0.00,CLR,,0.00,WeatherDisplay:10.37,2013-04-22 19:47:00,
2013-04-22 15:49:00,63.5,-13.3,30.34,East,86,5.5,10.8,4,0.00,CLR,,0.00,WeatherDisplay:10.37,2013-04-22 19:49:00,
2013-04-22 15:51:00,62.0,-14.4,30.34,East,80,8.8,12.7,4,0.00,CLR,,0.00,WeatherDisplay:10.37,2013-04-22 19:51:00,
2013-04-22 15:52:00,62.6,-9.5,30.34,NE,34,3.2,8.1,5,0.00,CLR,,0.00,WeatherDisplay:10.37,2013-04-22 19:52:00,
2013-04-22 15:53:00,62.6,-9.5,30.34,NE,44,1.7,8.1,5,0.00,CLR,,0.00,WeatherDisplay:10.37,2013-04-22 19:53:00,
2013-04-22 15:54:00,63.1,-9.1,30.34,NNE,21,0.9,5.8,5,0.00,CLR,,0.00,WeatherDisplay:10.37,2013-04-22 19:54:00,
2013-04-22 15:56:00,63.1,-13.6,30.34,ENE,76,1.5,8.0,4,0.00,CLR,,0.00,WeatherDisplay:10.37,2013-04-22 19:56:00,
2013-04-22 15:57:00,62.8,-13.8,30.34,NE,56,5.3,8.1,4,0.00,CLR,,0.00,WeatherDisplay:10.37,2013-04-22 19:57:00,
2013-04-22 15:58:00,62.6,-9.5,30.34,ESE,116,6.0,8.6,5,0.00,CLR,,0.00,WeatherDisplay:10.37,2013-04-22 19:58:00,
2013-04-22 15:59:00,62.4,-9.6,30.34,ENE,78,4.7,11.5,5,0.00,CLR,,0.00,WeatherDisplay:10.37,2013-04-22 19:59:00,
2013-04-22 16:01:00,62.7,-9.4,30.33,ENE,64,3.4,6.9,5,0.00,CLR,,0.00,WeatherDisplay:10.37,2013-04-22 20:01:00,
2013-04-22 16:02:00,63.3,-9.0,30.34,NE,40,1.2,4.6,5,0.00,CLR,,0.00,WeatherDisplay:10.37,2013-04-22 20:02:00,
2013-04-22 16:03:00,62.9,-13.7,30.33,North,8,3.0,8.6,4,0.00,CLR,,0.00,WeatherDisplay:10.37,2013-04-22 20:03:00,
2013-04-22 16:04:00,61.8,-14.5,30.33,NE,54,5.3,11.5,4,0.00,CLR,,0.00,WeatherDisplay:10.37,2013-04-22 20:04:00,
2013-04-22 16:06:00,62.1,-9.8,30.33,NE,54,0.0,0.0,5,0.00,CLR,,0.00,WeatherDisplay:10.37,2013-04-22 20:06:00,
2013-04-22 16:07:00,61.9,-14.4,30.33,East,85,6.1,10.2,4,0.00,CLR,,0.00,WeatherDisplay:10.37,2013-04-22 20:07:00,
2013-04-22 16:08:00,61.5,-14.7,30.33,ESE,104,8.8,13.3,4,0.00,CLR,,0.00,WeatherDisplay:10.37,2013-04-22 20:08:00,
2013-04-22 16:09:00,60.1,-15.7,30.33,ESE,104,7.6,13.8,4,0.00,CLR,,0.00,WeatherDisplay:10.37,2013-04-22 20:09:00,
2013-04-22 16:10:00,60.2,-15.6,30.33,ESE,104,5.5,13.8,4,0.00,CLR,,0.00,WeatherDisplay:10.37,2013-04-22 20:10:00,
2013-04-22 16:12:00,60.3,-15.6,30.33,ENE,69,7.5,10.4,4,0.00,CLR,,0.00,WeatherDisplay:10.37,2013-04-22 20:12:00,
2013-04-22 16:13:00,60.3,-11.1,30.33,ESE,114,5.9,10.4,5,0.00,CLR,,0.00,WeatherDisplay:10.37,2013-04-22 20:13:00,
2013-04-22 16:15:00,61.1,-10.5,30.33,SE,133,4.0,9.2,5,0.00,CLR,,0.00,WeatherDisplay:10.37,2013-04-22 20:15:00,
2013-04-22 16:17:00,61.7,-10.1,30.33,North,11,5.7,6.9,5,0.00,CLR,,0.00,WeatherDisplay:10.37,2013-04-22 20:17:00,
2013-04-22 16:18:00,61.6,-10.2,30.33,ENE,62,7.2,12.7,5,0.00,CLR,,0.00,WeatherDisplay:10.37,2013-04-22 20:18:00,
2013-04-22 16:20:00,61.6,-10.2,30.33,NNE,21,4.9,9.2,5,0.00,CLR,,0.00,WeatherDisplay:10.37,2013-04-22 20:20:00,
2013-04-22 16:22:00,62.0,-9.9,30.33,SE,127,1.6,11.5,5,0.00,CLR,,0.00,WeatherDisplay:10.37,2013-04-22 20:22:00,
2013-04-22 16:23:00,62.3,-9.7,30.33,SE,127,0.5,5.8,5,0.00,CLR,,0.00,WeatherDisplay:10.37,2013-04-22 20:23:00,
2013-04-22 16:25:00,63.1,-9.1,30.33,ESE,119,8.1,13.4,5,0.00,CLR,,0.00,WeatherDisplay:10.37,2013-04-22 20:25:00,
2013-04-22 16:28:00,62.4,-14.1,30.33,ENE,68,8.0,13.8,4,0.00,CLR,,0.00,WeatherDisplay:10.37,2013-04-22 20:28:00,
2013-04-22 16:29:00,61.6,-14.7,30.33,ENE,75,7.9,11.5,4,0.00,CLR,,0.00,WeatherDisplay:10.37,2013-04-22 20:29:00,
2013-04-22 16:30:00,61.4,-10.3,30.32,East,83,4.8,11.5,5,0.00,CLR,,0.00,WeatherDisplay:10.37,2013-04-22 20:30:00,
2013-04-22 16:33:00,62.6,-14.0,30.32,NE,56,0.0,0.0,4,0.00,CLR,,0.00,WeatherDisplay:10.37,2013-04-22 20:33:00,
2013-04-22 16:34:00,61.9,-10.0,30.32,ENE,66,6.3,9.2,5,0.00,CLR,,0.00,WeatherDisplay:10.37,2013-04-22 20:34:00,
2013-04-22 16:35:00,62.0,-9.9,30.32,East,99,7.0,12.3,5,0.00,CLR,,0.00,WeatherDisplay:10.37,2013-04-22 20:35:00,
2013-04-22 16:36:00,62.3,-9.7,30.32,SE,131,8.9,12.7,5,0.00,CLR,,0.00,WeatherDisplay:10.37,2013-04-22 20:36:00,
2013-04-22 16:38:00,60.6,-15.4,30.32,SE,131,9.6,13.8,4,0.00,CLR,,0.00,WeatherDisplay:10.37,2013-04-22 20:38:00,
2013-04-22 16:39:00,61.5,-10.3,30.32,SE,126,3.6,8.1,5,0.00,CLR,,0.00,WeatherDisplay:10.37,2013-04-22 20:39:00,
2013-04-22 16:41:00,62.5,-9.5,30.32,ENE,69,3.1,7.0,5,0.00,CLR,,0.00,WeatherDisplay:10.37,2013-04-22 20:41:00,
2013-04-22 16:43:00,62.4,-14.1,30.32,ESE,110,5.2,11.5,4,0.00,CLR,,0.00,WeatherDisplay:10.37,2013-04-22 20:43:00,
2013-04-22 16:44:00,63.0,-13.7,30.32,East,96,4.0,5.8,4,0.00,CLR,,0.00,WeatherDisplay:10.37,2013-04-22 20:44:00,
2013-04-22 16:46:00,63.0,-5.4,30.32,East,100,7.9,9.2,6,0.00,CLR,,0.00,WeatherDisplay:10.37,2013-04-22 20:46:00,
2013-04-22 16:49:00,62.0,-9.9,30.32,SE,140,10.6,18.4,5,0.00,CLR,,0.00,WeatherDisplay:10.37,2013-04-22 20:49:00,
2013-04-22 16:51:00,62.4,-14.1,30.32,ENE,76,6.8,12.7,4,0.00,CLR,,0.00,WeatherDisplay:10.37,2013-04-22 20:51:00,
2013-04-22 16:52:00,62.4,-14.1,30.32,SE,140,3.8,10.4,4,0.00,CLR,,0.00,WeatherDisplay:10.37,2013-04-22 20:52:00,
2013-04-22 16:54:00,63.6,-8.7,30.32,ESE,107,8.3,13.7,5,0.00,CLR,,0.00,WeatherDisplay:10.37,2013-04-22 20:54:00,
2013-04-22 16:55:00,62.8,-9.3,30.32,ESE,113,9.4,15.0,5,0.00,CLR,,0.00,WeatherDisplay:10.37,2013-04-22 20:55:00,
2013-04-22 16:56:00,62.2,-14.2,30.32,East,95,6.1,12.3,4,0.00,CLR,,0.00,WeatherDisplay:10.37,2013-04-22 20:56:00,
2013-04-22 16:57:00,62.2,-14.2,30.32,East,96,9.2,15.0,4,0.00,CLR,,0.00,WeatherDisplay:10.37,2013-04-22 20:57:00,
2013-04-22 16:59:00,61.7,-14.6,30.32,NE,35,4.6,8.1,4,0.00,CLR,,0.00,WeatherDisplay:10.37,2013-04-22 20:59:00,
2013-04-22 17:00:00,62.5,-14.0,30.32,East,99,2.3,8.1,4,0.00,CLR,,0.00,WeatherDisplay:10.37,2013-04-22 21:00:00,
2013-04-22 17:01:00,62.4,-14.1,30.32,NE,51,1.4,5.0,4,0.00,CLR,,0.00,WeatherDisplay:10.37,2013-04-22 21:01:00,
2013-04-22 17:02:00,62.3,-14.2,30.32,ESE,113,2.9,5.8,4,0.00,CLR,,0.00,WeatherDisplay:10.37,2013-04-22 21:02:00,
2013-04-22 17:04:00,62.5,-14.0,30.32,ENE,71,3.0,6.9,4,0.00,CLR,,0.00,WeatherDisplay:10.37,2013-04-22 21:04:00,
2013-04-22 17:05:00,62.7,-13.9,30.32,East,96,1.1,8.3,4,0.00,CLR,,0.00,WeatherDisplay:10.37,2013-04-22 21:05:00,
2013-04-22 17:06:00,62.4,-14.1,30.32,East,95,2.3,5.8,4,0.00,CLR,,0.00,WeatherDisplay:10.37,2013-04-22 21:06:00,
2013-04-22 17:07:00,62.7,-13.9,30.32,NE,56,2.2,5.8,4,0.00,CLR,,0.00,WeatherDisplay:10.37,2013-04-22 21:07:00,
2013-04-22 17:09:00,63.1,-13.6,30.32,ENE,69,0.0,5.8,4,0.00,CLR,,0.00,WeatherDisplay:10.37,2013-04-22 21:09:00,
2013-04-22 17:10:00,62.3,-14.2,30.32,ESE,121,1.3,3.2,4,0.00,CLR,,0.00,WeatherDisplay:10.37,2013-04-22 21:10:00,
2013-04-22 17:12:00,63.3,-13.5,30.32,East,92,1.9,4.6,4,0.00,CLR,,0.00,WeatherDisplay:10.37,2013-04-22 21:12:00,
2013-04-22 17:14:00,63.4,-19.1,30.32,NE,41,8.3,12.7,3,0.00,CLR,,0.00,WeatherDisplay:10.37,2013-04-22 21:14:00,
2013-04-22 17:15:00,62.7,-13.9,30.32,East,80,8.3,13.8,4,0.00,CLR,,0.00,WeatherDisplay:10.37,2013-04-22 21:15:00,
2013-04-22 17:17:00,62.6,-9.5,30.32,ESE,109,9.2,10.9,5,0.00,CLR,,0.00,WeatherDisplay:10.37,2013-04-22 21:17:00,
2013-04-22 17:20:00,64.2,-12.8,30.32,ESE,119,0.0,0.0,4,0.00,CLR,,0.00,WeatherDisplay:10.37,2013-04-22 21:20:00,
2013-04-22 17:22:00,64.8,-12.4,30.32,ESE,112,5.5,6.9,4,0.00,CLR,,0.00,WeatherDisplay:10.37,2013-04-22 21:22:00,
2013-04-22 17:23:00,64.9,-12.3,30.32,South,184,5.3,9.2,4,0.00,CLR,,0.00,WeatherDisplay:10.37,2013-04-22 21:23:00,
2013-04-22 17:25:00,65.3,-12.1,30.32,NE,49,6.4,9.2,4,0.00,CLR,,0.00,WeatherDisplay:10.37,2013-04-22 21:25:00,
2013-04-22 17:26:00,64.9,-18.0,30.32,NE,35,4.1,9.2,3,0.00,CLR,,0.00,WeatherDisplay:10.37,2013-04-22 21:26:00,
2013-04-22 17:27:00,64.6,-18.2,30.31,NE,35,0.0,0.0,3,0.00,CLR,,0.00,WeatherDisplay:10.37,2013-04-22 21:27:00,
2013-04-22 17:28:00,64.6,-12.6,30.31,SE,126,1.0,5.8,4,0.00,CLR,,0.00,WeatherDisplay:10.37,2013-04-22 21:28:00,
2013-04-22 17:30:00,65.4,-7.5,30.31,SE,144,7.1,7.8,5,0.00,CLR,,0.00,WeatherDisplay:10.37,2013-04-22 21:30:00,
2013-04-22 17:31:00,65.1,-7.7,30.32,East,92,7.8,11.5,5,0.00,CLR,,0.00,WeatherDisplay:10.37,2013-04-22 21:31:00,
2013-04-22 17:32:00,64.7,-8.0,30.31,East,95,8.2,10.4,5,0.00,CLR,,0.00,WeatherDisplay:10.37,2013-04-22 21:32:00,
2013-04-22 17:33:00,64.6,-12.6,30.31,ESE,112,6.7,10.4,4,0.00,CLR,,0.00,WeatherDisplay:10.37,2013-04-22 21:33:00,
2013-04-22 17:35:00,64.9,-12.3,30.31,ESE,112,3.2,5.8,4,0.00,CLR,,0.00,WeatherDisplay:10.37,2013-04-22 21:35:00,
2013-04-22 17:36:00,64.9,-12.3,30.31,SE,130,3.2,6.2,4,0.00,CLR,,0.00,WeatherDisplay:10.37,2013-04-22 21:36:00,
2013-04-22 17:38:00,65.0,-12.3,30.31,ESE,110,1.2,4.6,4,0.00,CLR,,0.00,WeatherDisplay:10.37,2013-04-22 21:38:00,
2013-04-22 17:41:00,63.3,-13.5,30.31,NE,35,6.6,10.4,4,0.00,CLR,,0.00,WeatherDisplay:10.37,2013-04-22 21:41:00,
2013-04-22 17:43:00,62.4,-14.1,30.32,ENE,61,5.5,8.7,4,0.00,CLR,,0.00,WeatherDisplay:10.37,2013-04-22 21:43:00,
2013-04-22 17:46:00,61.7,-10.1,30.31,NE,47,0.9,9.2,5,0.00,CLR,,0.00,WeatherDisplay:10.37,2013-04-22 21:46:00,
2013-04-22 17:48:00,62.5,-9.5,30.31,NE,47,0.0,0.0,5,0.00,CLR,,0.00,WeatherDisplay:10.37,2013-04-22 21:48:00,
2013-04-22 17:51:00,63.2,-9.0,30.32,East,80,6.8,12.7,5,0.00,CLR,,0.00,WeatherDisplay:10.37,2013-04-22 21:51:00,
2013-04-22 17:53:00,63.7,-4.9,30.31,SE,140,6.6,8.3,6,0.00,CLR,,0.00,WeatherDisplay:10.37,2013-04-22 21:53:00,
2013-04-22 17:56:00,63.6,-8.7,30.31,SE,136,6.4,8.1,5,0.00,CLR,,0.00,WeatherDisplay:10.37,2013-04-22 21:56:00,
2013-04-22 17:57:00,63.9,-8.5,30.31,ESE,119,6.9,11.5,5,0.00,CLR,,0.00,WeatherDisplay:10.37,2013-04-22 21:57:00,
2013-04-22 17:58:00,64.0,-8.5,30.32,ESE,104,5.1,10.4,5,0.00,CLR,,0.00,WeatherDisplay:10.37,2013-04-22 21:58:00,
2013-04-22 18:01:00,63.1,-9.1,30.32,NNE,31,2.0,6.9,5,0.00,CLR,,0.00,WeatherDisplay:10.37,2013-04-22 22:01:00,
2013-04-22 18:02:00,62.9,-9.2,30.32,ESE,102,2.6,6.9,5,0.00,CLR,,0.00,WeatherDisplay:10.37,2013-04-22 22:02:00,
2013-04-22 18:03:00,62.8,-9.3,30.32,SE,127,6.6,7.4,5,0.00,CLR,,0.00,WeatherDisplay:10.37,2013-04-22 22:03:00,
2013-04-22 18:07:00,62.0,-9.9,30.32,ESE,121,4.2,6.9,5,0.00,CLR,,0.00,WeatherDisplay:10.37,2013-04-22 22:07:00,
2013-04-22 18:08:00,62.7,-5.6,30.31,ESE,123,6.1,9.2,6,0.00,CLR,,0.00,WeatherDisplay:10.37,2013-04-22 22:08:00,
2013-04-22 18:09:00,62.5,-5.8,30.31,SE,145,8.2,13.9,6,0.00,CLR,,0.00,WeatherDisplay:10.37,2013-04-22 22:09:00,
2013-04-22 18:12:00,62.0,-6.2,30.31,ESE,107,7.7,9.4,6,0.00,CLR,,0.00,WeatherDisplay:10.37,2013-04-22 22:12:00,
2013-04-22 18:13:00,62.3,-9.7,30.31,SE,127,7.1,11.8,5,0.00,CLR,,0.00,WeatherDisplay:10.37,2013-04-22 22:13:00,
2013-04-22 18:14:00,62.1,-6.1,30.31,ESE,119,8.4,11.5,6,0.00,CLR,,0.00,WeatherDisplay:10.37,2013-04-22 22:14:00,
2013-04-22 18:17:00,62.2,-6.0,30.32,ENE,78,5.6,8.1,6,0.00,CLR,,0.00,WeatherDisplay:10.37,2013-04-22 22:17:00,
2013-04-22 18:18:00,62.4,-9.6,30.31,ESE,119,3.5,8.1,5,0.00,CLR,,0.00,WeatherDisplay:10.37,2013-04-22 22:18:00,
2013-04-22 18:19:00,63.0,-5.4,30.32,ESE,106,5.1,8.1,6,0.00,CLR,,0.00,WeatherDisplay:10.37,2013-04-22 22:19:00,
2013-04-22 18:22:00,61.2,-10.5,30.32,ENE,72,8.4,15.0,5,0.00,CLR,,0.00,WeatherDisplay:10.37,2013-04-22 22:22:00,
2013-04-22 18:23:00,60.9,-10.7,30.32,SE,133,8.3,15.0,5,0.00,CLR,,0.00,WeatherDisplay:10.37,2013-04-22 22:23:00,
2013-04-22 18:24:00,61.1,-10.5,30.32,East,89,5.2,8.1,5,0.00,CLR,,0.00,WeatherDisplay:10.37,2013-04-22 22:24:00,
2013-04-22 18:28:00,61.3,-6.7,30.32,SSE,152,5.5,9.2,6,0.00,CLR,,0.00,WeatherDisplay:10.37,2013-04-22 22:28:00,
2013-04-22 18:29:00,62.0,-9.9,30.32,ENE,72,2.9,9.2,5,0.00,CLR,,0.00,WeatherDisplay:10.37,2013-04-22 22:29:00,
2013-04-22 18:33:00,61.9,-6.2,30.32,SE,143,7.0,13.8,6,0.00,CLR,,0.00,WeatherDisplay:10.37,2013-04-22 22:33:00,
2013-04-22 18:34:00,61.8,-6.3,30.32,SE,136,10.1,12.9,6,0.00,CLR,,0.00,WeatherDisplay:10.37,2013-04-22 22:34:00,
2013-04-22 18:35:00,62.2,-2.8,30.32,SE,140,10.4,12.7,7,0.00,CLR,,0.00,WeatherDisplay:10.37,2013-04-22 22:35:00,
2013-04-22 18:38:00,62.3,-5.9,30.32,ESE,104,3.7,16.1,6,0.00,CLR,,0.00,WeatherDisplay:10.37,2013-04-22 22:38:00,
2013-04-22 18:39:00,61.9,-10.0,30.32,East,79,5.9,8.1,5,0.00,CLR,,0.00,WeatherDisplay:10.37,2013-04-22 22:39:00,
2013-04-22 18:40:00,60.9,-10.7,30.32,East,85,6.6,8.1,5,0.00,CLR,,0.00,WeatherDisplay:10.37,2013-04-22 22:40:00,
2013-04-22 18:43:00,61.1,-6.8,30.32,SE,140,2.9,9.2,6,0.00,CLR,,0.00,WeatherDisplay:10.37,2013-04-22 22:43:00,
2013-04-22 18:44:00,61.3,-3.5,30.32,SE,131,5.1,8.7,7,0.00,CLR,,0.00,WeatherDisplay:10.37,2013-04-22 22:44:00,
2013-04-22 18:45:00,61.5,-6.5,30.32,SE,136,6.5,10.4,6,0.00,CLR,,0.00,WeatherDisplay:10.37,2013-04-22 22:45:00,
2013-04-22 18:49:00,62.6,-9.5,30.32,ENE,75,2.0,6.9,5,0.00,CLR,,0.00,WeatherDisplay:10.37,2013-04-22 22:49:00,
2013-04-22 18:50:00,63.1,-9.1,30.32,ENE,75,0.0,3.5,5,0.00,CLR,,0.00,WeatherDisplay:10.37,2013-04-22 22:50:00,
2013-04-22 18:54:00,62.6,-5.7,30.32,ESE,103,1.8,7.0,6,0.00,CLR,,0.00,WeatherDisplay:10.37,2013-04-22 22:54:00,
2013-04-22 18:55:00,61.8,-6.3,30.32,East,90,6.9,10.6,6,0.00,CLR,,0.00,WeatherDisplay:10.37,2013-04-22 22:55:00,
2013-04-22 18:56:00,61.6,-6.4,30.32,East,92,8.4,10.4,6,0.00,CLR,,0.00,WeatherDisplay:10.37,2013-04-22 22:56:00,
2013-04-22 18:59:00,61.3,-3.5,30.32,SSE,164,7.3,9.2,7,0.00,CLR,,0.00,WeatherDisplay:10.37,2013-04-22 22:59:00,
2013-04-22 19:00:00,61.5,-6.5,30.32,ESE,119,5.3,10.4,6,0.00,CLR,,0.00,WeatherDisplay:10.37,2013-04-22 23:00:00,
2013-04-22 19:01:00,62.4,-5.9,30.32,ESE,102,5.5,9.2,6,0.00,CLR,,0.00,WeatherDisplay:10.37,2013-04-22 23:01:00,
2013-04-22 19:04:00,62.8,-5.6,30.32,East,93,4.9,9.2,6,0.00,CLR,,0.00,WeatherDisplay:10.37,2013-04-22 23:04:00,
2013-04-22 19:05:00,62.6,-5.7,30.32,ESE,102,4.8,9.2,6,0.00,CLR,,0.00,WeatherDisplay:10.37,2013-04-22 23:05:00,
2013-04-22 19:06:00,63.6,-1.8,30.32,SSE,161,3.3,7.0,7,0.00,CLR,,0.00,WeatherDisplay:10.37,2013-04-22 23:06:00,
2013-04-22 19:10:00,60.9,-7.0,30.32,SE,130,5.7,9.2,6,0.00,CLR,,0.00,WeatherDisplay:10.37,2013-04-22 23:10:00,
2013-04-22 19:12:00,60.6,-7.2,30.32,East,95,5.8,9.5,6,0.00,CLR,,0.00,WeatherDisplay:10.37,2013-04-22 23:12:00,
2013-04-22 19:15:00,60.2,-7.5,30.32,NNE,31,0.6,5.2,6,0.00,CLR,,0.00,WeatherDisplay:10.37,2013-04-22 23:15:00,
2013-04-22 19:17:00,59.2,-8.2,30.32,NE,54,6.7,10.4,6,0.00,CLR,,0.00,WeatherDisplay:10.37,2013-04-22 23:17:00,
2013-04-22 19:20:00,60.3,-4.2,30.32,SSE,165,1.5,8.0,7,0.00,CLR,,0.00,WeatherDisplay:10.37,2013-04-22 23:20:00,
2013-04-22 19:21:00,59.7,-7.8,30.32,SE,145,4.6,8.1,6,0.00,CLR,,0.00,WeatherDisplay:10.37,2013-04-22 23:21:00,
2013-04-22 19:22:00,59.9,-4.5,30.32,ESE,123,3.6,8.1,7,0.00,CLR,,0.00,WeatherDisplay:10.37,2013-04-22 23:22:00,
2013-04-22 19:25:00,59.9,-4.5,30.32,ESE,112,0.2,6.9,7,0.00,CLR,,0.00,WeatherDisplay:10.37,2013-04-22 23:25:00,
2013-04-22 19:26:00,60.4,-4.1,30.32,ESE,112,0.0,0.0,7,0.00,CLR,,0.00,WeatherDisplay:10.37,2013-04-22 23:26:00,
2013-04-22 19:27:00,60.7,-7.1,30.32,ESE,110,1.1,6.8,6,0.00,CLR,,0.00,WeatherDisplay:10.37,2013-04-22 23:27:00,
2013-04-22 19:30:00,59.9,5.2,30.33,SE,127,7.3,7.3,11,0.00,CLR,,0.00,WeatherDisplay:10.37,2013-04-22 23:30:00,
2013-04-22 19:31:00,59.8,-7.8,30.33,SE,143,5.8,12.7,6,0.00,CLR,,0.00,WeatherDisplay:10.37,2013-04-22 23:31:00,
2013-04-22 19:32:00,59.7,-7.8,30.33,ESE,103,4.6,7.5,6,0.00,CLR,,0.00,WeatherDisplay:10.37,2013-04-22 23:32:00,
2013-04-22 19:35:00,59.2,-2.2,30.32,SE,127,2.9,8.1,8,0.00,CLR,,0.00,WeatherDisplay:10.37,2013-04-22 23:35:00,
2013-04-22 19:36:00,59.0,0.1,30.33,ESE,109,2.2,6.9,9,0.00,CLR,,0.00,WeatherDisplay:10.37,2013-04-22 23:36:00,
2013-04-22 19:37:00,59.1,-5.1,30.33,ESE,102,2.0,5.8,7,0.00,CLR,,0.00,WeatherDisplay:10.37,2013-04-22 23:37:00,
2013-04-22 19:41:00,56.9,-4.0,30.32,East,97,4.7,9.2,8,0.00,CLR,,0.00,WeatherDisplay:10.37,2013-04-22 23:41:00,
2013-04-22 19:42:00,57.0,-3.9,30.32,East,83,0.9,6.9,8,0.00,CLR,,0.00,WeatherDisplay:10.37,2013-04-22 23:42:00,
2013-04-22 19:46:00,55.2,-5.2,30.32,East,99,2.0,4.4,8,0.00,CLR,,0.00,WeatherDisplay:10.37,2013-04-22 23:46:00,
2013-04-22 19:47:00,54.5,-5.8,30.33,East,93,2.2,5.8,8,0.00,CLR,,0.00,WeatherDisplay:10.37,2013-04-22 23:47:00,
2013-04-22 19:51:00,55.1,6.7,30.33,SE,126,4.4,8.1,14,0.00,CLR,,0.00,WeatherDisplay:10.37,2013-04-22 23:51:00,
2013-04-22 19:52:00,54.4,-5.8,30.33,ESE,104,4.2,12.1,8,0.00,CLR,,0.00,WeatherDisplay:10.37,2013-04-22 23:52:00,
2013-04-22 19:56:00,53.3,-4.2,30.32,ESE,106,5.4,8.1,9,0.00,CLR,,0.00,WeatherDisplay:10.37,2013-04-22 23:56:00,
2013-04-22 19:57:00,53.2,-4.3,30.33,East,95,2.8,8.1,9,0.00,CLR,,0.00,WeatherDisplay:10.37,2013-04-22 23:57:00,
2013-04-22 19:58:00,53.4,-4.1,30.33,SE,127,2.8,5.8,9,0.00,CLR,,0.00,WeatherDisplay:10.37,2013-04-22 23:58:00,
2013-04-22 20:01:00,52.9,1.6,30.33,East,86,3.5,6.9,12,0.00,CLR,,0.00,WeatherDisplay:10.37,2013-04-23 00:01:00,
2013-04-22 20:02:00,52.7,-2.5,30.33,NE,54,5.0,6.9,10,0.00,CLR,,0.00,WeatherDisplay:10.37,2013-04-23 00:02:00,
2013-04-22 20:03:00,53.0,-2.2,30.33,ESE,117,5.7,8.1,10,0.00,CLR,,0.00,WeatherDisplay:10.37,2013-04-23 00:03:00,
2013-04-22 20:06:00,52.2,-2.9,30.33,ESE,110,4.5,9.2,10,0.00,CLR,,0.00,WeatherDisplay:10.37,2013-04-23 00:06:00,
2013-04-22 20:07:00,53.5,3.8,30.33,East,93,4.7,9.2,13,0.00,CLR,,0.00,WeatherDisplay:10.37,2013-04-23 00:07:00,
2013-04-22 20:08:00,52.5,-2.6,30.33,East,82,2.6,5.8,10,0.00,CLR,,0.00,WeatherDisplay:10.37,2013-04-23 00:08:00,
2013-04-22 20:12:00,52.5,1.2,30.33,SE,127,5.2,8.1,12,0.00,CLR,,0.00,WeatherDisplay:10.37,2013-04-23 00:12:00,
2013-04-22 20:13:00,52.4,-0.7,30.33,ESE,113,3.9,5.8,11,0.00,CLR,,0.00,WeatherDisplay:10.37,2013-04-23 00:13:00,
2013-04-22 20:17:00,51.7,-3.2,30.33,East,90,6.4,8.1,10,0.00,CLR,,0.00,WeatherDisplay:10.37,2013-04-23 00:17:00,
2013-04-22 20:18:00,51.3,0.3,30.33,ESE,104,2.5,8.1,12,0.00,CLR,,0.00,WeatherDisplay:10.37,2013-04-23 00:18:00,
2013-04-22 20:19:00,52.0,-1.0,30.33,East,95,3.3,6.9,11,0.00,CLR,,0.00,WeatherDisplay:10.37,2013-04-23 00:19:00,
2013-04-22 20:22:00,52.3,1.1,30.33,East,86,0.0,0.0,12,0.00,CLR,,0.00,WeatherDisplay:10.37,2013-04-23 00:22:00,
2013-04-22 20:23:00,52.3,1.1,30.33,East,86,0.0,0.0,12,0.00,CLR,,0.00,WeatherDisplay:10.37,2013-04-23 00:23:00,
2013-04-22 20:24:00,52.2,1.0,30.33,East,86,0.0,0.0,12,0.00,CLR,,0.00,WeatherDisplay:10.37,2013-04-23 00:24:00,
2013-04-22 20:28:00,51.6,0.5,30.33,East,86,0.0,0.0,12,0.00,CLR,,0.00,WeatherDisplay:10.37,2013-04-23 00:28:00,
2013-04-22 20:29:00,51.1,1.9,30.33,East,86,0.0,0.0,13,0.00,CLR,,0.00,WeatherDisplay:10.37,2013-04-23 00:29:00,
2013-04-22 20:30:00,51.0,1.8,30.33,East,86,0.0,0.0,13,0.00,CLR,,0.00,WeatherDisplay:10.37,2013-04-23 00:30:00,
2013-04-22 20:33:00,51.1,3.5,30.33,East,86,0.0,0.0,14,0.00,CLR,,0.00,WeatherDisplay:10.37,2013-04-23 00:33:00,
2013-04-22 20:34:00,50.5,3.0,30.33,East,86,0.0,0.0,14,0.00,CLR,,0.00,WeatherDisplay:10.37,2013-04-23 00:34:00,
2013-04-22 20:35:00,50.5,3.0,30.33,East,86,0.0,0.0,14,0.00,CLR,,0.00,WeatherDisplay:10.37,2013-04-23 00:35:00,
2013-04-22 20:38:00,50.5,4.5,30.33,East,86,0.0,0.0,15,0.00,CLR,,0.00,WeatherDisplay:10.37,2013-04-23 00:38:00,
2013-04-22 20:39:00,50.7,4.6,30.33,East,86,0.0,0.0,15,0.00,CLR,,0.00,WeatherDisplay:10.37,2013-04-23 00:39:00,
2013-04-22 20:40:00,50.7,6.1,30.33,East,86,0.0,0.0,16,0.00,CLR,,0.00,WeatherDisplay:10.37,2013-04-23 00:40:00,
2013-04-22 20:43:00,50.2,5.6,30.33,East,86,0.0,0.0,16,0.00,CLR,,0.00,WeatherDisplay:10.37,2013-04-23 00:43:00,
2013-04-22 20:44:00,50.6,6.0,30.33,East,86,0.0,0.0,16,0.00,CLR,,0.00,WeatherDisplay:10.37,2013-04-23 00:44:00,
2013-04-22 20:45:00,50.7,6.1,30.34,East,86,0.0,0.0,16,0.00,CLR,,0.00,WeatherDisplay:10.37,2013-04-23 00:45:00,
2013-04-22 20:49:00,50.3,7.1,30.33,East,86,0.0,0.0,17,0.00,CLR,,0.00,WeatherDisplay:10.37,2013-04-23 00:49:00,
2013-04-22 20:50:00,50.3,7.1,30.34,East,86,0.0,0.0,17,0.00,CLR,,0.00,WeatherDisplay:10.37,2013-04-23 00:50:00,
2013-04-22 20:54:00,50.3,7.1,30.33,East,86,0.0,0.0,17,0.00,CLR,,0.00,WeatherDisplay:10.37,2013-04-23 00:54:00,
2013-04-22 20:55:00,50.2,8.2,30.34,East,86,0.0,0.0,18,0.00,CLR,,0.00,WeatherDisplay:10.37,2013-04-23 00:55:00,
2013-04-22 20:59:00,50.2,10.6,30.34,East,86,0.0,0.0,20,0.00,CLR,,0.00,WeatherDisplay:10.37,2013-04-23 00:59:00,
2013-04-22 21:00:00,50.1,10.5,30.34,East,86,0.0,0.0,20,0.00,CLR,,0.00,WeatherDisplay:10.37,2013-04-23 01:00:00,
2013-04-22 21:05:00,50.2,8.2,30.34,East,86,0.0,0.0,18,0.00,CLR,,0.00,WeatherDisplay:10.37,2013-04-23 01:05:00,
2013-04-22 21:10:00,50.1,10.5,30.34,East,86,0.0,0.0,20,0.00,CLR,,0.00,WeatherDisplay:10.37,2013-04-23 01:10:00,
2013-04-22 21:15:00,50.2,8.2,30.34,East,86,0.0,0.0,18,0.00,CLR,,0.00,WeatherDisplay:10.37,2013-04-23 01:15:00,
2013-04-22 21:16:00,50.2,8.2,30.34,East,86,0.0,0.0,18,0.00,CLR,,0.00,WeatherDisplay:10.37,2013-04-23 01:16:00,
2013-04-22 21:20:00,50.1,12.7,30.34,East,86,0.0,0.0,22,0.00,CLR,,0.00,WeatherDisplay:10.37,2013-04-23 01:20:00,
2013-04-22 21:21:00,50.2,11.7,30.34,East,86,0.0,0.0,21,0.00,CLR,,0.00,WeatherDisplay:10.37,2013-04-23 01:21:00,
2013-04-22 21:26:00,50.3,17.5,30.34,East,86,0.0,0.0,27,0.00,CLR,,0.00,WeatherDisplay:10.37,2013-04-23 01:26:00,
2013-04-22 21:31:00,50.2,9.5,30.34,East,86,0.0,0.0,19,0.00,CLR,,0.00,WeatherDisplay:10.37,2013-04-23 01:31:00,
2013-04-22 21:36:00,49.9,9.2,30.34,NE,45,0.0,0.0,19,0.00,CLR,,0.00,WeatherDisplay:10.37,2013-04-23 01:36:00,
2013-04-22 21:37:00,50.3,10.7,30.34,NE,45,0.0,0.0,20,0.00,CLR,,0.00,WeatherDisplay:10.37,2013-04-23 01:37:00,
2013-04-22 21:41:00,50.2,10.6,30.34,NE,45,0.0,0.0,20,0.00,CLR,,0.00,WeatherDisplay:10.37,2013-04-23 01:41:00,
2013-04-22 21:42:00,50.2,10.6,30.34,NE,45,0.0,0.0,20,0.00,CLR,,0.00,WeatherDisplay:10.37,2013-04-23 01:42:00,
2013-04-22 21:46:00,50.2,10.6,30.34,NE,45,0.0,0.0,20,0.00,CLR,,0.00,WeatherDisplay:10.37,2013-04-23 01:46:00,
2013-04-22 21:47:00,50.4,11.9,30.34,NE,45,0.0,0.0,21,0.00,CLR,,0.00,WeatherDisplay:10.37,2013-04-23 01:47:00,
2013-04-22 21:51:00,50.3,11.8,30.34,NE,45,0.0,0.0,21,0.00,CLR,,0.00,WeatherDisplay:10.37,2013-04-23 01:51:00,
2013-04-22 21:52:00,50.1,11.6,30.34,SSE,154,0.8,5.5,21,0.00,CLR,,0.00,WeatherDisplay:10.37,2013-04-23 01:52:00,
2013-04-22 21:56:00,50.2,10.6,30.34,NE,51,0.0,0.0,20,0.00,CLR,,0.00,WeatherDisplay:10.37,2013-04-23 01:56:00,
2013-04-22 21:57:00,50.2,10.6,30.34,NE,51,0.0,0.0,20,0.00,CLR,,0.00,WeatherDisplay:10.37,2013-04-23 01:57:00,
2013-04-22 22:02:00,50.1,11.6,30.35,NE,51,0.0,0.0,21,0.00,CLR,,0.00,WeatherDisplay:10.37,2013-04-23 02:02:00,
2013-04-22 22:07:00,50.2,12.8,30.34,NE,51,0.0,0.0,22,0.00,CLR,,0.00,WeatherDisplay:10.37,2013-04-23 02:07:00,
2013-04-22 22:08:00,49.9,13.5,30.34,NNE,32,0.3,0.0,23,0.00,CLR,,0.00,WeatherDisplay:10.37,2013-04-23 02:08:00,
2013-04-22 22:12:00,50.2,14.7,30.34,NE,35,0.0,0.0,24,0.00,CLR,,0.00,WeatherDisplay:10.37,2013-04-23 02:12:00,
2013-04-22 22:13:00,50.0,14.6,30.35,NE,35,0.0,0.0,24,0.00,CLR,,0.00,WeatherDisplay:10.37,2013-04-23 02:13:00,
2013-04-22 22:17:00,50.2,12.8,30.34,NE,49,0.7,6.9,22,0.00,CLR,,0.00,WeatherDisplay:10.37,2013-04-23 02:17:00,
2013-04-22 22:18:00,50.0,13.6,30.34,ENE,72,1.0,5.8,23,0.00,CLR,,0.00,WeatherDisplay:10.37,2013-04-23 02:18:00,
2013-04-22 22:22:00,50.1,14.7,30.34,ENE,72,0.0,0.0,24,0.00,CLR,,0.00,WeatherDisplay:10.37,2013-04-23 02:22:00,
2013-04-22 22:23:00,50.0,14.6,30.34,ENE,72,0.0,0.0,24,0.00,CLR,,0.00,WeatherDisplay:10.37,2013-04-23 02:23:00,
2013-04-22 22:27:00,50.2,14.7,30.34,ENE,72,0.0,0.0,24,0.00,CLR,,0.00,WeatherDisplay:10.37,2013-04-23 02:27:00,
2013-04-22 22:28:00,50.3,17.5,30.34,East,93,3.0,6.9,27,0.00,CLR,,0.00,WeatherDisplay:10.37,2013-04-23 02:28:00,
2013-04-22 22:29:00,50.4,13.9,30.34,ENE,73,2.3,6.9,23,0.00,CLR,,0.00,WeatherDisplay:10.37,2013-04-23 02:29:00,
2013-04-22 22:33:00,50.9,14.4,30.34,ESE,116,4.2,5.8,23,0.00,CLR,,0.00,WeatherDisplay:10.37,2013-04-23 02:33:00,
2013-04-22 22:34:00,50.2,12.8,30.35,East,95,0.7,4.6,22,0.00,CLR,,0.00,WeatherDisplay:10.37,2013-04-23 02:34:00,
2013-04-22 22:38:00,50.9,16.3,30.35,East,99,0.0,0.0,25,0.00,CLR,,0.00,WeatherDisplay:10.37,2013-04-23 02:38:00,
2013-04-22 22:39:00,50.3,17.5,30.35,East,99,0.0,0.0,27,0.00,CLR,,0.00,WeatherDisplay:10.37,2013-04-23 02:39:00,
2013-04-22 22:40:00,50.4,17.6,30.35,East,99,0.0,0.0,27,0.00,CLR,,0.00,WeatherDisplay:10.37,2013-04-23 02:40:00,
2013-04-22 22:43:00,50.4,13.9,30.35,ENE,76,5.4,7.2,23,0.00,CLR,,0.00,WeatherDisplay:10.37,2013-04-23 02:43:00,
2013-04-22 22:44:00,50.5,15.9,30.35,SE,124,5.0,8.1,25,0.00,CLR,,0.00,WeatherDisplay:10.37,2013-04-23 02:44:00,
2013-04-22 22:45:00,50.6,13.1,30.35,SE,124,1.6,6.9,22,0.00,CLR,,0.00,WeatherDisplay:10.37,2013-04-23 02:45:00,
2013-04-22 22:48:00,50.4,13.9,30.35,ENE,61,5.0,7.8,23,0.00,CLR,,0.00,WeatherDisplay:10.37,2013-04-23 02:48:00,
2013-04-22 22:49:00,50.8,13.3,30.34,ESE,107,3.9,8.1,22,0.00,CLR,,0.00,WeatherDisplay:10.37,2013-04-23 02:49:00,
2013-04-22 22:50:00,50.9,13.3,30.34,ENE,76,4.3,6.9,22,0.00,CLR,,0.00,WeatherDisplay:10.37,2013-04-23 02:50:00,
2013-04-22 22:53:00,50.4,13.9,30.34,ENE,61,1.4,5.8,23,0.00,CLR,,0.00,WeatherDisplay:10.37,2013-04-23 02:53:00,
2013-04-22 22:54:00,50.5,14.0,30.34,ESE,120,0.5,8.1,23,0.00,CLR,,0.00,WeatherDisplay:10.37,2013-04-23 02:54:00,
2013-04-22 22:55:00,50.6,15.1,30.34,ESE,110,3.9,9.2,24,0.00,CLR,,0.00,WeatherDisplay:10.37,2013-04-23 02:55:00,
2013-04-22 22:58:00,50.4,14.9,30.34,ENE,59,1.1,10.4,24,0.00,CLR,,0.00,WeatherDisplay:10.37,2013-04-23 02:58:00,
2013-04-22 22:59:00,50.3,13.9,30.34,ENE,59,0.5,3.5,23,0.00,CLR,,0.00,WeatherDisplay:10.37,2013-04-23 02:59:00,
2013-04-22 23:00:00,50.5,13.0,30.34,ENE,69,2.8,9.2,22,0.00,CLR,,0.00,WeatherDisplay:10.37,2013-04-23 03:00:00,
2013-04-22 23:03:00,50.2,13.8,30.34,SSE,165,7.6,7.6,23,0.00,CLR,,0.00,WeatherDisplay:10.37,2013-04-23 03:03:00,
2013-04-22 23:04:00,50.2,14.7,30.34,East,93,7.9,13.8,24,0.00,CLR,,0.00,WeatherDisplay:10.37,2013-04-23 03:04:00,
2013-04-22 23:05:00,50.4,13.9,30.34,ESE,109,7.2,13.8,23,0.00,CLR,,0.00,WeatherDisplay:10.37,2013-04-23 03:05:00,
2013-04-22 23:09:00,50.4,13.9,30.34,ESE,106,9.2,15.0,23,0.00,CLR,,0.00,WeatherDisplay:10.37,2013-04-23 03:09:00,
2013-04-22 23:10:00,50.3,13.9,30.34,ENE,68,9.6,15.0,23,0.00,CLR,,0.00,WeatherDisplay:10.37,2013-04-23 03:10:00,
2013-04-22 23:11:00,50.2,13.8,30.34,ENE,68,0.1,4.6,23,0.00,CLR,,0.00,WeatherDisplay:10.37,2013-04-23 03:11:00,
2013-04-22 23:14:00,50.4,13.9,30.34,ENE,64,1.0,4.6,23,0.00,CLR,,0.00,WeatherDisplay:10.37,2013-04-23 03:14:00,
2013-04-22 23:15:00,50.9,15.3,30.34,ESE,117,2.3,8.1,24,0.00,CLR,,0.00,WeatherDisplay:10.37,2013-04-23 03:15:00,
2013-04-22 23:16:00,50.2,14.7,30.34,ESE,112,6.3,8.1,24,0.00,CLR,,0.00,WeatherDisplay:10.37,2013-04-23 03:16:00,
2013-04-22 23:19:00,50.3,14.8,30.34,ENE,62,7.7,13.8,24,0.00,CLR,,0.00,WeatherDisplay:10.37,2013-04-23 03:19:00,
2013-04-22 23:20:00,50.5,15.0,30.34,ENE,69,4.6,6.9,24,0.00,CLR,,0.00,WeatherDisplay:10.37,2013-04-23 03:20:00,
2013-04-22 23:21:00,50.3,14.8,30.34,East,85,1.1,9.2,24,0.00,CLR,,0.00,WeatherDisplay:10.37,2013-04-23 03:21:00,
2013-04-22 23:24:00,50.4,16.8,30.34,East,100,3.9,8.1,26,0.00,CLR,,0.00,WeatherDisplay:10.37,2013-04-23 03:24:00,
2013-04-22 23:25:00,50.8,15.2,30.34,NE,56,0.7,4.6,24,0.00,CLR,,0.00,WeatherDisplay:10.37,2013-04-23 03:25:00,
2013-04-22 23:26:00,50.3,15.8,30.34,NNE,27,4.5,10.4,25,0.00,CLR,,0.00,WeatherDisplay:10.37,2013-04-23 03:26:00,
2013-04-22 23:29:00,50.2,14.7,30.34,ENE,58,5.1,9.2,24,0.00,CLR,,0.00,WeatherDisplay:10.37,2013-04-23 03:29:00,
2013-04-22 23:30:00,50.3,15.8,30.34,East,99,1.4,5.8,25,0.00,CLR,,0.00,WeatherDisplay:10.37,2013-04-23 03:30:00,
2013-04-22 23:31:00,50.3,15.8,30.34,East,99,1.5,5.8,25,0.00,CLR,,0.00,WeatherDisplay:10.37,2013-04-23 03:31:00,
2013-04-22 23:34:00,50.3,16.7,30.34,NE,44,6.0,9.2,26,0.00,CLR,,0.00,WeatherDisplay:10.37,2013-04-23 03:34:00,
2013-04-22 23:35:00,50.2,16.6,30.34,ENE,78,3.3,8.1,26,0.00,CLR,,0.00,WeatherDisplay:10.37,2013-04-23 03:35:00,
2013-04-22 23:36:00,50.5,16.8,30.34,East,99,4.7,9.2,26,0.00,CLR,,0.00,WeatherDisplay:10.37,2013-04-23 03:36:00,
2013-04-22 23:39:00,50.4,15.8,30.34,East,80,3.4,11.5,25,0.00,CLR,,0.00,WeatherDisplay:10.37,2013-04-23 03:39:00,
2013-04-22 23:41:00,50.1,15.6,30.34,East,80,0.0,0.0,25,0.00,CLR,,0.00,WeatherDisplay:10.37,2013-04-23 03:41:00,
2013-04-22 23:44:00,50.3,16.7,30.34,East,79,4.0,6.9,26,0.00,CLR,,0.00,WeatherDisplay:10.37,2013-04-23 03:44:00,
2013-04-22 23:46:00,50.4,17.6,30.34,SE,134,3.7,8.5,27,0.00,CLR,,0.00,WeatherDisplay:10.37,2013-04-23 03:46:00,
2013-04-22 23:47:00,50.2,15.7,30.34,SE,124,7.6,10.4,25,0.00,CLR,,0.00,WeatherDisplay:10.37,2013-04-23 03:47:00,
2013-04-22 23:49:00,50.2,18.3,30.34,ENE,62,5.8,12.7,28,0.00,CLR,,0.00,WeatherDisplay:10.37,2013-04-23 03:49:00,
2013-04-22 23:51:00,50.4,16.8,30.34,ESE,120,5.1,8.1,26,0.00,CLR,,0.00,WeatherDisplay:10.37,2013-04-23 03:51:00,
2013-04-22 23:52:00,50.2,17.5,30.34,ESE,117,6.4,10.4,27,0.00,CLR,,0.00,WeatherDisplay:10.37,2013-04-23 03:52:00,
2013-04-22 23:54:00,50.2,19.9,30.34,SE,133,6.5,8.1,30,0.00,CLR,,0.00,WeatherDisplay:10.37,2013-04-23 03:54:00,
2013-04-22 23:56:00,50.2,16.6,30.34,ENE,62,3.3,6.9,26,0.00,CLR,,0.00,WeatherDisplay:10.37,2013-04-23 03:56:00,
2013-04-22 23:57:00,50.3,16.7,30.34,East,92,3.6,5.8,26,0.00,CLR,,0.00,WeatherDisplay:10.37,2013-04-23 03:57:00,
2013-04-22 23:59:00,50.4,17.6,30.34,SE,127,4.8,12.7,27,0.00,CLR,,0.00,WeatherDisplay:10.37,2013-04-23 03:59:00,